Time,TemperatureF,DewpointF,PressureIn,WindDirection,WindDirectionDegrees,WindSpeedMPH,WindSpeedGustMPH,Humidity,HourlyPrecipIn,Conditions,Clouds,dailyrainin,SoftwareType,DateUTC
2013-02-22 00:03:00,50.2,48.8,29.91,NE,42,0.0,1.0,95,0.18,,,0.00,Wunderground v.1.13,2013-02-22 06:03:00,
2013-02-22 00:05:00,50.2,48.8,29.91,East,96,0.0,0.0,95,0.14,,,0.01,Wunderground v.1.13,2013-02-22 06:05:00,
2013-02-22 00:06:00,50.2,48.8,29.91,East,96,0.0,0.0,95,0.14,,,0.01,Wunderground v.1.13,2013-02-22 06:06:00,
2013-02-22 00:10:00,50.2,48.8,29.91,SSE,151,0.0,0.0,95,0.18,,,0.02,Wunderground v.1.13,2013-02-22 06:10:00,
2013-02-22 00:12:00,50.2,48.8,29.91,ENE,58,0.0,2.0,95,0.19,,,0.03,Wunderground v.1.13,2013-02-22 06:12:00,
2013-02-22 00:13:00,50.2,48.8,29.91,ENE,58,0.0,2.0,95,0.19,,,0.03,Wunderground v.1.13,2013-02-22 06:13:00,
2013-02-22 00:16:00,50.3,48.9,29.91,ESE,117,0.0,1.0,95,0.24,,,0.04,Wunderground v.1.13,2013-02-22 06:16:00,
2013-02-22 00:17:00,50.3,48.9,29.91,SE,132,1.0,1.0,95,0.17,,,0.04,Wunderground v.1.13,2013-02-22 06:17:00,
2013-02-22 00:18:00,50.3,48.9,29.91,ENE,78,0.0,1.0,95,0.13,,,0.04,Wunderground v.1.13,2013-02-22 06:18:00,
2013-02-22 00:21:00,50.3,48.9,29.91,SE,133,0.0,0.0,95,0.12,,,0.05,Wunderground v.1.13,2013-02-22 06:21:00,
2013-02-22 00:23:00,50.3,48.9,29.91,NNE,33,0.0,1.0,95,0.12,,,0.05,Wunderground v.1.13,2013-02-22 06:23:00,
2013-02-22 00:24:00,50.3,48.9,29.91,NNE,33,0.0,1.0,95,0.11,,,0.06,Wunderground v.1.13,2013-02-22 06:24:00,
2013-02-22 00:27:00,50.3,48.9,29.91,NNE,33,0.0,0.0,95,0.11,,,0.06,Wunderground v.1.13,2013-02-22 06:27:00,
2013-02-22 00:31:00,50.3,48.9,29.91,ENE,66,0.0,0.0,95,0.10,,,0.07,Wunderground v.1.13,2013-02-22 06:31:00,
2013-02-22 00:32:00,50.3,48.9,29.90,ENE,66,0.0,0.0,95,0.10,,,0.07,Wunderground v.1.13,2013-02-22 06:32:00,
2013-02-22 00:33:00,50.3,48.9,29.90,ENE,66,0.0,0.0,95,0.10,,,0.07,Wunderground v.1.13,2013-02-22 06:33:00,
2013-02-22 00:37:00,50.3,48.9,29.90,ENE,59,0.0,0.0,95,0.13,,,0.08,Wunderground v.1.13,2013-02-22 06:37:00,
2013-02-22 00:39:00,50.4,49.0,29.90,ENE,59,0.0,0.0,95,0.13,,,0.08,Wunderground v.1.13,2013-02-22 06:39:00,
2013-02-22 00:42:00,50.4,49.0,29.90,SSE,159,0.0,2.0,95,0.08,,,0.08,Wunderground v.1.13,2013-02-22 06:42:00,
2013-02-22 00:45:00,50.4,49.0,29.90,SSE,159,0.0,0.0,95,0.06,,,0.08,Wunderground v.1.13,2013-02-22 06:45:00,
2013-02-22 00:49:00,50.4,49.0,29.92,ENE,65,0.0,2.0,95,0.04,,,0.08,Wunderground v.1.13,2013-02-22 06:49:00,
2013-02-22 00:50:00,50.4,49.0,29.92,ENE,65,0.0,0.0,95,0.04,,,0.08,Wunderground v.1.13,2013-02-22 06:50:00,
2013-02-22 00:51:00,50.4,49.0,29.92,ENE,65,0.0,0.0,95,0.04,,,0.08,Wunderground v.1.13,2013-02-22 06:51:00,
2013-02-22 00:54:00,50.4,49.0,29.92,ENE,65,0.0,0.0,95,0.00,,,0.08,Wunderground v.1.13,2013-02-22 06:54:00,
2013-02-22 00:56:00,50.6,49.2,29.92,ENE,65,0.0,2.0,95,0.00,,,0.08,Wunderground v.1.13,2013-02-22 06:56:00,
2013-02-22 00:58:00,50.6,49.2,29.92,ENE,65,0.0,2.0,95,0.00,,,0.08,Wunderground v.1.13,2013-02-22 06:58:00,
2013-02-22 00:59:00,50.6,49.2,29.92,ENE,65,0.0,2.0,95,0.00,,,0.08,Wunderground v.1.13,2013-02-22 06:59:00,
2013-02-22 01:01:00,50.6,49.2,29.92,ENE,65,0.0,0.0,95,0.00,,,0.08,Wunderground v.1.13,2013-02-22 07:01:00,
2013-02-22 01:03:00,50.6,49.2,29.92,NW,324,0.0,0.0,95,0.00,,,0.09,Wunderground v.1.13,2013-02-22 07:03:00,
2013-02-22 01:04:00,50.6,49.2,29.92,NW,325,0.0,0.0,95,0.00,,,0.09,Wunderground v.1.13,2013-02-22 07:04:00,
2013-02-22 01:07:00,50.6,49.2,29.92,NE,42,0.0,0.0,95,0.00,,,0.09,Wunderground v.1.13,2013-02-22 07:07:00,
2013-02-22 01:09:00,50.6,49.2,29.92,NE,42,0.0,0.0,95,0.00,,,0.09,Wunderground v.1.13,2013-02-22 07:09:00,
2013-02-22 01:10:00,50.6,49.2,29.92,NE,42,0.0,0.0,95,0.00,,,0.09,Wunderground v.1.13,2013-02-22 07:10:00,
2013-02-22 01:13:00,50.6,49.2,29.92,ENE,77,0.0,1.0,95,0.00,,,0.09,Wunderground v.1.13,2013-02-22 07:13:00,
2013-02-22 01:14:00,50.6,49.2,29.92,ENE,77,0.0,1.0,95,0.00,,,0.09,Wunderground v.1.13,2013-02-22 07:14:00,
2013-02-22 01:18:00,50.6,49.2,29.93,ENE,77,0.0,1.0,95,0.00,,,0.09,Wunderground v.1.13,2013-02-22 07:18:00,
2013-02-22 01:21:00,50.6,49.2,29.93,ENE,77,0.0,0.0,95,0.00,,,0.09,Wunderground v.1.13,2013-02-22 07:21:00,
2013-02-22 01:23:00,50.6,49.2,29.93,ENE,77,0.0,0.0,95,0.00,,,0.09,Wunderground v.1.13,2013-02-22 07:23:00,
2013-02-22 01:25:00,50.6,49.2,29.93,ENE,77,0.0,0.0,95,0.00,,,0.09,Wunderground v.1.13,2013-02-22 07:25:00,
2013-02-22 01:26:00,50.6,49.2,29.93,ENE,77,0.0,0.0,95,0.00,,,0.09,Wunderground v.1.13,2013-02-22 07:26:00,
2013-02-22 01:29:00,50.6,49.2,29.93,ENE,77,0.0,0.0,95,0.00,,,0.09,Wunderground v.1.13,2013-02-22 07:29:00,
2013-02-22 01:30:00,50.6,49.2,29.93,ENE,77,0.0,0.0,95,0.00,,,0.09,Wunderground v.1.13,2013-02-22 07:30:00,
2013-02-22 01:32:00,50.6,49.2,29.93,ENE,77,0.0,0.0,95,0.00,,,0.09,Wunderground v.1.13,2013-02-22 07:32:00,
2013-02-22 01:33:00,50.6,49.2,29.93,ENE,77,0.0,0.0,95,0.00,,,0.09,Wunderground v.1.13,2013-02-22 07:33:00,
2013-02-22 01:36:00,50.7,49.3,29.93,ENE,77,0.0,0.0,95,0.00,,,0.09,Wunderground v.1.13,2013-02-22 07:36:00,
2013-02-22 01:37:00,50.7,49.3,29.93,ENE,77,0.0,0.0,95,0.00,,,0.09,Wunderground v.1.13,2013-02-22 07:37:00,
2013-02-22 01:38:00,50.7,49.3,29.93,ENE,77,0.0,0.0,95,0.00,,,0.09,Wunderground v.1.13,2013-02-22 07:38:00,
2013-02-22 01:40:00,50.7,49.3,29.93,ENE,71,0.0,0.0,95,0.00,,,0.09,Wunderground v.1.13,2013-02-22 07:40:00,
2013-02-22 01:41:00,50.7,49.3,29.93,ENE,71,0.0,0.0,95,0.00,,,0.09,Wunderground v.1.13,2013-02-22 07:41:00,
2013-02-22 01:45:00,50.7,49.3,29.93,ENE,71,0.0,0.0,95,0.00,,,0.09,Wunderground v.1.13,2013-02-22 07:45:00,
2013-02-22 01:46:00,50.7,49.3,29.93,ENE,71,0.0,0.0,95,0.00,,,0.09,Wunderground v.1.13,2013-02-22 07:46:00,
2013-02-22 01:48:00,50.7,49.3,29.93,ENE,71,0.0,0.0,95,0.00,,,0.10,Wunderground v.1.13,2013-02-22 07:48:00,
2013-02-22 01:50:00,50.7,49.3,29.93,ENE,71,0.0,0.0,95,0.00,,,0.10,Wunderground v.1.13,2013-02-22 07:50:00,
2013-02-22 01:53:00,50.7,49.3,29.93,ENE,71,2.0,2.0,95,0.10,,,0.10,Wunderground v.1.13,2013-02-22 07:53:00,
2013-02-22 01:56:00,50.7,49.3,29.93,ENE,71,0.0,0.0,95,0.10,,,0.11,Wunderground v.1.13,2013-02-22 07:56:00,
2013-02-22 01:57:00,50.7,49.3,29.93,ENE,71,0.0,0.0,95,0.10,,,0.11,Wunderground v.1.13,2013-02-22 07:57:00,
2013-02-22 01:58:00,50.7,49.3,29.93,ENE,76,0.0,0.0,95,0.10,,,0.11,Wunderground v.1.13,2013-02-22 07:58:00,
2013-02-22 01:59:00,50.7,49.3,29.93,ENE,76,0.0,0.0,95,0.10,,,0.11,Wunderground v.1.13,2013-02-22 07:59:00,
2013-02-22 02:01:00,50.7,49.6,29.93,ENE,76,0.0,0.0,96,0.07,,,0.11,Wunderground v.1.13,2013-02-22 08:01:00,
2013-02-22 02:02:00,50.7,49.3,29.91,ENE,76,0.0,0.0,95,0.06,,,0.11,Wunderground v.1.13,2013-02-22 08:02:00,
2013-02-22 02:03:00,50.7,49.3,29.91,ENE,76,0.0,0.0,95,0.06,,,0.11,Wunderground v.1.13,2013-02-22 08:03:00,
2013-02-22 02:04:00,50.7,49.3,29.91,ENE,76,0.0,0.0,95,0.05,,,0.11,Wunderground v.1.13,2013-02-22 08:04:00,
2013-02-22 02:06:00,50.6,49.5,29.91,ENE,76,0.0,0.0,96,0.04,,,0.11,Wunderground v.1.13,2013-02-22 08:06:00,
2013-02-22 02:07:00,50.6,49.5,29.91,ENE,76,0.0,0.0,96,0.04,,,0.11,Wunderground v.1.13,2013-02-22 08:07:00,
2013-02-22 02:08:00,50.6,49.5,29.91,ENE,76,0.0,1.0,96,0.04,,,0.11,Wunderground v.1.13,2013-02-22 08:08:00,
2013-02-22 02:10:00,50.6,49.5,29.91,ENE,76,0.0,0.0,96,0.04,,,0.11,Wunderground v.1.13,2013-02-22 08:10:00,
2013-02-22 02:11:00,50.6,49.5,29.91,ENE,76,0.0,0.0,96,0.00,,,0.11,Wunderground v.1.13,2013-02-22 08:11:00,
2013-02-22 02:12:00,50.6,49.5,29.91,ENE,76,0.0,0.0,96,0.00,,,0.11,Wunderground v.1.13,2013-02-22 08:12:00,
2013-02-22 02:13:00,50.6,49.5,29.91,ENE,76,0.0,2.0,96,0.00,,,0.11,Wunderground v.1.13,2013-02-22 08:13:00,
2013-02-22 02:15:00,50.6,49.5,29.91,ENE,76,0.0,0.0,96,0.00,,,0.11,Wunderground v.1.13,2013-02-22 08:15:00,
2013-02-22 02:16:00,50.6,49.5,29.91,ENE,76,0.0,1.0,96,0.00,,,0.11,Wunderground v.1.13,2013-02-22 08:16:00,
2013-02-22 02:18:00,50.7,49.6,29.91,WSW,238,0.0,2.0,96,0.00,,,0.11,Wunderground v.1.13,2013-02-22 08:18:00,
2013-02-22 02:19:00,50.7,49.6,29.91,NNE,24,0.0,4.0,96,0.00,,,0.11,Wunderground v.1.13,2013-02-22 08:19:00,
2013-02-22 02:20:00,50.7,49.6,29.91,WNW,282,0.0,0.0,96,0.00,,,0.11,Wunderground v.1.13,2013-02-22 08:20:00,
2013-02-22 02:21:00,50.7,49.6,29.91,NNW,342,0.0,2.0,96,0.00,,,0.11,Wunderground v.1.13,2013-02-22 08:21:00,
2013-02-22 02:23:00,50.7,49.6,29.91,NNW,342,0.0,2.0,96,0.00,,,0.11,Wunderground v.1.13,2013-02-22 08:23:00,
2013-02-22 02:24:00,50.7,49.6,29.91,NNW,338,0.0,2.0,96,0.00,,,0.11,Wunderground v.1.13,2013-02-22 08:24:00,
2013-02-22 02:25:00,50.7,49.6,29.91,NNW,327,2.0,2.0,96,0.00,,,0.11,Wunderground v.1.13,2013-02-22 08:25:00,
2013-02-22 02:26:00,50.7,49.6,29.91,South,181,0.0,4.0,96,0.00,,,0.11,Wunderground v.1.13,2013-02-22 08:26:00,
2013-02-22 02:28:00,50.9,49.8,29.91,North,350,3.0,4.0,96,0.00,,,0.11,Wunderground v.1.13,2013-02-22 08:28:00,
2013-02-22 02:29:00,50.9,49.8,29.91,North,350,0.0,4.0,96,0.00,,,0.11,Wunderground v.1.13,2013-02-22 08:29:00,
2013-02-22 02:30:00,50.9,49.8,29.91,North,350,0.0,1.0,96,0.00,,,0.11,Wunderground v.1.13,2013-02-22 08:30:00,
2013-02-22 02:31:00,50.9,49.8,29.91,North,350,0.0,1.0,96,0.00,,,0.11,Wunderground v.1.13,2013-02-22 08:31:00,
2013-02-22 02:33:00,50.9,49.8,29.91,North,350,0.0,1.0,96,0.00,,,0.11,Wunderground v.1.13,2013-02-22 08:33:00,
2013-02-22 02:34:00,50.9,49.8,29.91,North,350,0.0,1.0,96,0.00,,,0.11,Wunderground v.1.13,2013-02-22 08:34:00,
2013-02-22 02:35:00,50.9,49.8,29.91,North,350,0.0,0.0,96,0.00,,,0.11,Wunderground v.1.13,2013-02-22 08:35:00,
2013-02-22 02:37:00,50.9,49.8,29.91,ENE,67,3.0,3.0,96,0.00,,,0.11,Wunderground v.1.13,2013-02-22 08:37:00,
2013-02-22 02:38:00,50.9,49.8,29.91,East,86,1.0,4.0,96,0.00,,,0.11,Wunderground v.1.13,2013-02-22 08:38:00,
2013-02-22 02:39:00,50.9,49.8,29.91,ENE,69,1.0,4.0,96,0.00,,,0.11,Wunderground v.1.13,2013-02-22 08:39:00,
2013-02-22 02:41:00,51.0,49.9,29.91,East,91,0.0,2.0,96,0.00,,,0.11,Wunderground v.1.13,2013-02-22 08:41:00,
2013-02-22 02:42:00,51.0,49.9,29.91,East,91,0.0,2.0,96,0.00,,,0.11,Wunderground v.1.13,2013-02-22 08:42:00,
2013-02-22 02:43:00,51.0,49.9,29.91,South,172,0.0,3.0,96,0.00,,,0.11,Wunderground v.1.13,2013-02-22 08:43:00,
2013-02-22 02:45:00,51.0,49.9,29.91,South,188,2.0,2.0,96,0.00,,,0.11,Wunderground v.1.13,2013-02-22 08:45:00,
2013-02-22 02:46:00,51.0,49.9,29.91,SSW,195,0.0,4.0,96,0.00,,,0.11,Wunderground v.1.13,2013-02-22 08:46:00,
2013-02-22 02:47:00,51.2,50.1,29.90,ESE,111,0.0,4.0,96,0.00,,,0.11,Wunderground v.1.13,2013-02-22 08:47:00,
2013-02-22 02:48:00,51.2,50.1,29.90,ESE,111,0.0,4.0,96,0.00,,,0.11,Wunderground v.1.13,2013-02-22 08:48:00,
2013-02-22 02:50:00,51.2,50.1,29.90,ESE,111,0.0,1.0,96,0.00,,,0.11,Wunderground v.1.13,2013-02-22 08:50:00,
2013-02-22 02:51:00,51.2,50.1,29.90,ESE,111,0.0,1.0,96,0.00,,,0.11,Wunderground v.1.13,2013-02-22 08:51:00,
2013-02-22 02:52:00,51.2,50.1,29.90,ESE,111,0.0,1.0,96,0.00,,,0.11,Wunderground v.1.13,2013-02-22 08:52:00,
2013-02-22 02:53:00,51.2,50.1,29.90,ESE,111,0.0,1.0,96,0.00,,,0.11,Wunderground v.1.13,2013-02-22 08:53:00,
2013-02-22 02:55:00,51.2,50.1,29.90,ESE,111,0.0,0.0,96,0.00,,,0.11,Wunderground v.1.13,2013-02-22 08:55:00,
2013-02-22 02:56:00,51.2,50.1,29.90,ESE,111,0.0,0.0,96,0.00,,,0.11,Wunderground v.1.13,2013-02-22 08:56:00,
2013-02-22 02:57:00,51.2,50.1,29.90,ESE,111,0.0,0.0,96,0.00,,,0.11,Wunderground v.1.13,2013-02-22 08:57:00,
2013-02-22 02:58:00,51.2,50.1,29.90,ESE,111,0.0,1.0,96,0.00,,,0.11,Wunderground v.1.13,2013-02-22 08:58:00,
2013-02-22 03:00:00,51.2,50.1,29.90,ESE,111,0.0,0.0,96,0.00,,,0.11,Wunderground v.1.13,2013-02-22 09:00:00,
2013-02-22 03:02:00,51.2,50.1,29.90,ESE,111,0.0,0.0,96,0.00,,,0.11,Wunderground v.1.13,2013-02-22 09:02:00,
2013-02-22 03:03:00,51.2,50.1,29.90,ESE,111,0.0,0.0,96,0.00,,,0.11,Wunderground v.1.13,2013-02-22 09:03:00,
2013-02-22 03:05:00,51.2,50.1,29.90,ESE,111,0.0,0.0,96,0.00,,,0.11,Wunderground v.1.13,2013-02-22 09:05:00,
2013-02-22 03:07:00,51.2,50.1,29.90,ESE,111,0.0,0.0,96,0.00,,,0.11,Wunderground v.1.13,2013-02-22 09:07:00,
2013-02-22 03:08:00,51.3,50.2,29.90,ESE,111,0.0,0.0,96,0.00,,,0.11,Wunderground v.1.13,2013-02-22 09:08:00,
2013-02-22 03:10:00,51.3,50.2,29.90,ESE,111,0.0,0.0,96,0.00,,,0.11,Wunderground v.1.13,2013-02-22 09:10:00,
2013-02-22 03:12:00,51.3,50.2,29.90,ESE,111,0.0,0.0,96,0.00,,,0.11,Wunderground v.1.13,2013-02-22 09:12:00,
2013-02-22 03:13:00,51.3,50.2,29.90,ESE,111,0.0,0.0,96,0.00,,,0.11,Wunderground v.1.13,2013-02-22 09:13:00,
2013-02-22 03:14:00,51.3,50.2,29.90,ESE,111,0.0,0.0,96,0.00,,,0.11,Wunderground v.1.13,2013-02-22 09:14:00,
2013-02-22 03:15:00,51.3,50.2,29.90,ESE,111,0.0,0.0,96,0.00,,,0.11,Wunderground v.1.13,2013-02-22 09:15:00,
2013-02-22 03:17:00,51.3,50.2,29.91,ESE,111,0.0,0.0,96,0.00,,,0.11,Wunderground v.1.13,2013-02-22 09:17:00,
2013-02-22 03:18:00,51.3,50.2,29.91,ESE,111,0.0,0.0,96,0.00,,,0.11,Wunderground v.1.13,2013-02-22 09:18:00,
2013-02-22 03:19:00,51.3,50.2,29.91,ESE,111,0.0,0.0,96,0.00,,,0.11,Wunderground v.1.13,2013-02-22 09:19:00,
2013-02-22 03:21:00,51.3,50.2,29.91,ESE,111,0.0,0.0,96,0.00,,,0.11,Wunderground v.1.13,2013-02-22 09:21:00,
2013-02-22 03:22:00,51.3,50.2,29.91,ESE,111,0.0,0.0,96,0.00,,,0.11,Wunderground v.1.13,2013-02-22 09:22:00,
2013-02-22 03:23:00,51.3,50.2,29.91,ESE,111,0.0,0.0,96,0.00,,,0.11,Wunderground v.1.13,2013-02-22 09:23:00,
2013-02-22 03:24:00,51.3,50.2,29.91,ESE,111,0.0,0.0,96,0.00,,,0.11,Wunderground v.1.13,2013-02-22 09:24:00,
2013-02-22 03:27:00,51.3,50.2,29.91,ESE,111,0.0,0.0,96,0.00,,,0.11,Wunderground v.1.13,2013-02-22 09:27:00,
2013-02-22 03:28:00,51.3,50.2,29.91,ESE,111,0.0,1.0,96,0.00,,,0.11,Wunderground v.1.13,2013-02-22 09:28:00,
2013-02-22 03:30:00,51.3,50.2,29.91,ESE,111,0.0,0.0,96,0.00,,,0.11,Wunderground v.1.13,2013-02-22 09:30:00,
2013-02-22 03:32:00,51.3,50.2,29.91,ESE,111,0.0,0.0,96,0.00,,,0.11,Wunderground v.1.13,2013-02-22 09:32:00,
2013-02-22 03:33:00,51.3,50.2,29.91,ESE,123,1.0,1.0,96,0.00,,,0.11,Wunderground v.1.13,2013-02-22 09:33:00,
2013-02-22 03:35:00,51.3,50.2,29.91,SSW,198,0.0,0.0,96,0.00,,,0.11,Wunderground v.1.13,2013-02-22 09:35:00,
2013-02-22 03:38:00,51.3,50.2,29.91,SSW,198,0.0,0.0,96,0.00,,,0.11,Wunderground v.1.13,2013-02-22 09:38:00,
2013-02-22 03:40:00,51.3,50.2,29.91,SSW,198,0.0,0.0,96,0.00,,,0.11,Wunderground v.1.13,2013-02-22 09:40:00,
2013-02-22 03:43:00,51.3,50.2,29.91,SSW,198,0.0,0.0,96,0.00,,,0.11,Wunderground v.1.13,2013-02-22 09:43:00,
2013-02-22 03:45:00,51.3,50.2,29.91,SSW,198,0.0,0.0,96,0.00,,,0.11,Wunderground v.1.13,2013-02-22 09:45:00,
2013-02-22 03:48:00,51.3,50.2,29.91,SSW,198,1.0,1.0,96,0.00,,,0.11,Wunderground v.1.13,2013-02-22 09:48:00,
2013-02-22 03:49:00,51.3,50.2,29.91,SSW,198,0.0,1.0,96,0.00,,,0.11,Wunderground v.1.13,2013-02-22 09:49:00,
2013-02-22 03:51:00,51.3,50.2,29.91,SSW,198,0.0,0.0,96,0.00,,,0.11,Wunderground v.1.13,2013-02-22 09:51:00,
2013-02-22 03:53:00,51.5,50.4,29.91,SSW,198,0.0,2.0,96,0.00,,,0.11,Wunderground v.1.13,2013-02-22 09:53:00,
2013-02-22 03:54:00,51.5,50.4,29.91,SSW,198,0.0,2.0,96,0.00,,,0.11,Wunderground v.1.13,2013-02-22 09:54:00,
2013-02-22 03:56:00,51.5,50.4,29.91,SSW,198,0.0,0.0,96,0.00,,,0.11,Wunderground v.1.13,2013-02-22 09:56:00,
2013-02-22 03:58:00,51.5,50.4,29.91,SSW,198,0.0,0.0,96,0.00,,,0.11,Wunderground v.1.13,2013-02-22 09:58:00,
2013-02-22 03:59:00,51.5,50.4,29.91,SSW,198,0.0,0.0,96,0.00,,,0.11,Wunderground v.1.13,2013-02-22 09:59:00,
2013-02-22 04:02:00,51.5,50.4,29.93,SSW,198,0.0,0.0,96,0.00,,,0.11,Wunderground v.1.13,2013-02-22 10:02:00,
2013-02-22 04:03:00,51.5,50.4,29.93,SSW,198,0.0,0.0,96,0.00,,,0.11,Wunderground v.1.13,2013-02-22 10:03:00,
2013-02-22 04:04:00,51.5,50.4,29.93,SSW,198,0.0,0.0,96,0.00,,,0.11,Wunderground v.1.13,2013-02-22 10:04:00,
2013-02-22 04:05:00,51.5,50.4,29.93,SSW,198,0.0,0.0,96,0.00,,,0.11,Wunderground v.1.13,2013-02-22 10:05:00,
2013-02-22 04:07:00,51.5,50.4,29.93,SSW,198,0.0,0.0,96,0.00,,,0.11,Wunderground v.1.13,2013-02-22 10:07:00,
2013-02-22 04:08:00,51.5,50.4,29.93,SSW,198,0.0,0.0,96,0.00,,,0.11,Wunderground v.1.13,2013-02-22 10:08:00,
2013-02-22 04:09:00,51.5,50.4,29.93,SSW,198,0.0,0.0,96,0.00,,,0.11,Wunderground v.1.13,2013-02-22 10:09:00,
2013-02-22 04:10:00,51.5,50.4,29.93,SSW,198,0.0,0.0,96,0.00,,,0.11,Wunderground v.1.13,2013-02-22 10:10:00,
2013-02-22 04:12:00,51.5,50.4,29.93,SSW,198,0.0,0.0,96,0.00,,,0.11,Wunderground v.1.13,2013-02-22 10:12:00,
2013-02-22 04:13:00,51.5,50.4,29.93,SSW,198,0.0,0.0,96,0.00,,,0.11,Wunderground v.1.13,2013-02-22 10:13:00,
2013-02-22 04:14:00,51.5,50.4,29.93,SSW,198,0.0,0.0,96,0.00,,,0.11,Wunderground v.1.13,2013-02-22 10:14:00,
2013-02-22 04:15:00,51.5,50.4,29.93,SSW,198,0.0,0.0,96,0.00,,,0.11,Wunderground v.1.13,2013-02-22 10:15:00,
2013-02-22 04:17:00,51.6,50.5,29.94,SSW,198,0.0,0.0,96,0.00,,,0.11,Wunderground v.1.13,2013-02-22 10:17:00,
2013-02-22 04:18:00,51.6,50.5,29.94,SSW,198,0.0,0.0,96,0.00,,,0.11,Wunderground v.1.13,2013-02-22 10:18:00,
2013-02-22 04:20:00,51.6,50.5,29.94,SSW,198,0.0,0.0,96,0.00,,,0.11,Wunderground v.1.13,2013-02-22 10:20:00,
2013-02-22 04:22:00,51.6,50.5,29.94,SSW,198,0.0,0.0,96,0.00,,,0.11,Wunderground v.1.13,2013-02-22 10:22:00,
2013-02-22 04:24:00,51.6,50.5,29.94,SSW,198,0.0,0.0,96,0.00,,,0.11,Wunderground v.1.13,2013-02-22 10:24:00,
2013-02-22 04:25:00,51.6,50.5,29.94,SSW,198,1.0,1.0,96,0.00,,,0.11,Wunderground v.1.13,2013-02-22 10:25:00,
2013-02-22 04:27:00,51.6,50.5,29.94,ENE,78,0.0,2.0,96,0.00,,,0.11,Wunderground v.1.13,2013-02-22 10:27:00,
2013-02-22 04:29:00,51.6,50.5,29.94,ESE,115,0.0,2.0,96,0.00,,,0.11,Wunderground v.1.13,2013-02-22 10:29:00,
2013-02-22 04:30:00,51.6,50.5,29.94,ESE,115,0.0,0.0,96,0.00,,,0.11,Wunderground v.1.13,2013-02-22 10:30:00,
2013-02-22 04:31:00,51.6,50.5,29.94,ESE,113,0.0,2.0,96,0.00,,,0.11,Wunderground v.1.13,2013-02-22 10:31:00,
2013-02-22 04:32:00,51.6,50.5,29.95,ESE,104,0.0,2.0,96,0.00,,,0.11,Wunderground v.1.13,2013-02-22 10:32:00,
2013-02-22 04:34:00,51.6,50.5,29.95,ESE,104,0.0,2.0,96,0.00,,,0.11,Wunderground v.1.13,2013-02-22 10:34:00,
2013-02-22 04:35:00,51.6,50.5,29.95,ESE,104,0.0,2.0,96,0.00,,,0.11,Wunderground v.1.13,2013-02-22 10:35:00,
2013-02-22 04:36:00,51.6,50.5,29.95,ESE,104,0.0,2.0,96,0.00,,,0.11,Wunderground v.1.13,2013-02-22 10:36:00,
2013-02-22 04:38:00,51.6,50.5,29.95,ESE,104,0.0,2.0,96,0.00,,,0.11,Wunderground v.1.13,2013-02-22 10:38:00,
2013-02-22 04:39:00,51.6,50.5,29.95,ESE,104,0.0,2.0,96,0.00,,,0.11,Wunderground v.1.13,2013-02-22 10:39:00,
2013-02-22 04:40:00,51.6,50.5,29.95,ESE,104,0.0,0.0,96,0.00,,,0.11,Wunderground v.1.13,2013-02-22 10:40:00,
2013-02-22 04:42:00,51.6,50.5,29.95,ESE,104,0.0,1.0,96,0.00,,,0.11,Wunderground v.1.13,2013-02-22 10:42:00,
2013-02-22 04:43:00,51.6,50.5,29.95,ESE,104,2.0,2.0,96,0.00,,,0.11,Wunderground v.1.13,2013-02-22 10:43:00,
2013-02-22 04:44:00,51.6,50.5,29.95,ESE,104,0.0,3.0,96,0.00,,,0.11,Wunderground v.1.13,2013-02-22 10:44:00,
2013-02-22 04:45:00,51.6,50.5,29.95,ESE,104,0.0,0.0,96,0.00,,,0.11,Wunderground v.1.13,2013-02-22 10:45:00,
2013-02-22 04:47:00,51.6,50.5,29.95,ESE,104,0.0,0.0,96,0.00,,,0.11,Wunderground v.1.13,2013-02-22 10:47:00,
2013-02-22 04:48:00,51.8,50.7,29.95,ESE,104,0.0,0.0,96,0.00,,,0.11,Wunderground v.1.13,2013-02-22 10:48:00,
2013-02-22 04:49:00,51.6,50.5,29.95,ESE,104,0.0,0.0,96,0.00,,,0.11,Wunderground v.1.13,2013-02-22 10:49:00,
2013-02-22 04:50:00,51.6,50.5,29.95,ESE,104,0.0,0.0,96,0.00,,,0.11,Wunderground v.1.13,2013-02-22 10:50:00,
2013-02-22 04:52:00,51.6,50.5,29.95,ESE,104,0.0,0.0,96,0.00,,,0.11,Wunderground v.1.13,2013-02-22 10:52:00,
2013-02-22 04:53:00,51.6,50.5,29.95,ESE,104,2.0,2.0,96,0.00,,,0.11,Wunderground v.1.13,2013-02-22 10:53:00,
2013-02-22 04:55:00,51.6,50.5,29.95,ESE,104,0.0,0.0,96,0.00,,,0.11,Wunderground v.1.13,2013-02-22 10:55:00,
2013-02-22 04:57:00,51.6,50.5,29.95,ESE,104,0.0,0.0,96,0.00,,,0.11,Wunderground v.1.13,2013-02-22 10:57:00,
2013-02-22 04:59:00,51.6,50.5,29.95,ESE,104,0.0,0.0,96,0.00,,,0.11,Wunderground v.1.13,2013-02-22 10:59:00,
2013-02-22 05:00:00,51.6,50.5,29.95,ESE,104,0.0,0.0,96,0.00,,,0.11,Wunderground v.1.13,2013-02-22 11:00:00,
2013-02-22 05:02:00,51.6,50.5,29.96,ESE,104,0.0,0.0,96,0.00,,,0.11,Wunderground v.1.13,2013-02-22 11:02:00,
2013-02-22 05:04:00,51.6,50.5,29.96,ESE,104,0.0,2.0,96,0.00,,,0.11,Wunderground v.1.13,2013-02-22 11:04:00,
2013-02-22 05:05:00,51.6,50.5,29.96,ESE,104,0.0,0.0,96,0.00,,,0.11,Wunderground v.1.13,2013-02-22 11:05:00,
2013-02-22 05:06:00,51.6,50.5,29.96,ESE,104,0.0,0.0,96,0.00,,,0.11,Wunderground v.1.13,2013-02-22 11:06:00,
2013-02-22 05:08:00,51.6,50.5,29.96,ESE,104,0.0,0.0,96,0.00,,,0.11,Wunderground v.1.13,2013-02-22 11:08:00,
2013-02-22 05:09:00,51.6,50.5,29.96,ESE,104,0.0,0.0,96,0.00,,,0.11,Wunderground v.1.13,2013-02-22 11:09:00,
2013-02-22 05:10:00,51.6,50.5,29.96,ESE,104,0.0,0.0,96,0.00,,,0.11,Wunderground v.1.13,2013-02-22 11:10:00,
2013-02-22 05:11:00,51.6,50.5,29.96,ESE,104,0.0,0.0,96,0.00,,,0.11,Wunderground v.1.13,2013-02-22 11:11:00,
2013-02-22 05:13:00,51.6,50.5,29.96,ESE,104,0.0,0.0,96,0.00,,,0.11,Wunderground v.1.13,2013-02-22 11:13:00,
2013-02-22 05:14:00,51.8,50.7,29.96,ESE,104,0.0,0.0,96,0.00,,,0.11,Wunderground v.1.13,2013-02-22 11:14:00,
2013-02-22 05:15:00,51.8,50.7,29.96,ESE,104,0.0,0.0,96,0.00,,,0.11,Wunderground v.1.13,2013-02-22 11:15:00,
2013-02-22 05:16:00,51.8,50.7,29.96,ESE,104,0.0,0.0,96,0.00,,,0.11,Wunderground v.1.13,2013-02-22 11:16:00,
2013-02-22 05:18:00,51.8,50.7,29.97,ESE,104,0.0,0.0,96,0.00,,,0.11,Wunderground v.1.13,2013-02-22 11:18:00,
2013-02-22 05:20:00,51.8,50.7,29.97,ESE,104,0.0,0.0,96,0.00,,,0.11,Wunderground v.1.13,2013-02-22 11:20:00,
2013-02-22 05:21:00,51.8,50.7,29.97,ESE,104,0.0,0.0,96,0.00,,,0.11,Wunderground v.1.13,2013-02-22 11:21:00,
2013-02-22 05:23:00,51.8,50.7,29.97,ESE,104,0.0,0.0,96,0.00,,,0.11,Wunderground v.1.13,2013-02-22 11:23:00,
2013-02-22 05:25:00,51.8,50.7,29.97,ESE,104,0.0,0.0,96,0.00,,,0.11,Wunderground v.1.13,2013-02-22 11:25:00,
2013-02-22 05:26:00,51.8,50.7,29.97,ESE,104,0.0,0.0,96,0.00,,,0.11,Wunderground v.1.13,2013-02-22 11:26:00,
2013-02-22 05:28:00,51.8,50.7,29.97,ESE,104,0.0,0.0,96,0.00,,,0.11,Wunderground v.1.13,2013-02-22 11:28:00,
2013-02-22 05:30:00,51.8,50.7,29.97,ESE,104,0.0,0.0,96,0.00,,,0.11,Wunderground v.1.13,2013-02-22 11:30:00,
2013-02-22 05:31:00,51.8,50.7,29.97,ESE,104,0.0,1.0,96,0.00,,,0.11,Wunderground v.1.13,2013-02-22 11:31:00,
2013-02-22 05:34:00,51.8,50.7,29.97,ESE,104,0.0,1.0,96,0.00,,,0.11,Wunderground v.1.13,2013-02-22 11:34:00,
2013-02-22 05:35:00,51.8,50.7,29.97,ESE,104,0.0,0.0,96,0.00,,,0.11,Wunderground v.1.13,2013-02-22 11:35:00,
2013-02-22 05:36:00,51.8,50.7,29.97,ESE,104,0.0,1.0,96,0.00,,,0.11,Wunderground v.1.13,2013-02-22 11:36:00,
2013-02-22 05:39:00,51.8,50.7,29.97,ESE,104,0.0,1.0,96,0.00,,,0.11,Wunderground v.1.13,2013-02-22 11:39:00,
2013-02-22 05:41:00,51.8,50.7,29.97,ESE,104,0.0,0.0,96,0.00,,,0.11,Wunderground v.1.13,2013-02-22 11:41:00,
2013-02-22 05:42:00,51.8,50.7,29.97,ESE,104,0.0,0.0,96,0.00,,,0.11,Wunderground v.1.13,2013-02-22 11:42:00,
2013-02-22 05:44:00,51.8,50.7,29.97,ESE,104,0.0,0.0,96,0.00,,,0.11,Wunderground v.1.13,2013-02-22 11:44:00,
2013-02-22 05:46:00,51.8,50.7,29.97,ESE,104,0.0,0.0,96,0.00,,,0.11,Wunderground v.1.13,2013-02-22 11:46:00,
2013-02-22 05:47:00,51.8,50.7,29.98,ESE,104,0.0,0.0,96,0.00,,,0.11,Wunderground v.1.13,2013-02-22 11:47:00,
2013-02-22 05:49:00,51.8,50.7,29.98,ESE,104,0.0,0.0,96,0.00,,,0.11,Wunderground v.1.13,2013-02-22 11:49:00,
2013-02-22 05:51:00,51.8,50.7,29.98,ESE,104,0.0,1.0,96,0.00,,,0.11,Wunderground v.1.13,2013-02-22 11:51:00,
2013-02-22 05:52:00,51.8,50.7,29.98,ESE,104,0.0,1.0,96,0.00,,,0.11,Wunderground v.1.13,2013-02-22 11:52:00,
2013-02-22 05:54:00,51.8,50.7,29.98,ESE,104,0.0,1.0,96,0.00,,,0.11,Wunderground v.1.13,2013-02-22 11:54:00,
2013-02-22 05:56:00,51.8,50.7,29.98,ESE,104,0.0,0.0,96,0.00,,,0.11,Wunderground v.1.13,2013-02-22 11:56:00,
2013-02-22 05:57:00,51.8,50.7,29.98,ESE,104,0.0,0.0,96,0.00,,,0.11,Wunderground v.1.13,2013-02-22 11:57:00,
2013-02-22 05:59:00,51.8,50.7,29.98,ESE,104,0.0,0.0,96,0.00,,,0.11,Wunderground v.1.13,2013-02-22 11:59:00,
2013-02-22 06:01:00,51.8,50.7,29.98,ESE,104,0.0,0.0,96,0.00,,,0.11,Wunderground v.1.13,2013-02-22 12:01:00,
2013-02-22 06:02:00,51.8,50.7,29.97,ESE,104,0.0,0.0,96,0.00,,,0.11,Wunderground v.1.13,2013-02-22 12:02:00,
2013-02-22 06:04:00,51.8,50.7,29.97,ESE,104,0.0,0.0,96,0.00,,,0.11,Wunderground v.1.13,2013-02-22 12:04:00,
2013-02-22 06:06:00,51.6,50.5,29.97,ESE,104,0.0,0.0,96,0.00,,,0.11,Wunderground v.1.13,2013-02-22 12:06:00,
2013-02-22 06:07:00,51.6,50.5,29.97,ESE,104,0.0,0.0,96,0.00,,,0.11,Wunderground v.1.13,2013-02-22 12:07:00,
2013-02-22 06:08:00,51.6,50.5,29.97,ESE,104,0.0,0.0,96,0.00,,,0.11,Wunderground v.1.13,2013-02-22 12:08:00,
2013-02-22 06:09:00,51.6,50.5,29.97,ESE,104,0.0,2.0,96,0.00,,,0.11,Wunderground v.1.13,2013-02-22 12:09:00,
2013-02-22 06:11:00,51.6,50.5,29.97,SSE,159,1.0,4.0,96,0.00,,,0.11,Wunderground v.1.13,2013-02-22 12:11:00,
2013-02-22 06:12:00,51.6,50.5,29.97,SSE,159,0.0,4.0,96,0.00,,,0.11,Wunderground v.1.13,2013-02-22 12:12:00,
2013-02-22 06:13:00,51.6,50.5,29.97,SSE,159,0.0,4.0,96,0.00,,,0.11,Wunderground v.1.13,2013-02-22 12:13:00,
2013-02-22 06:15:00,51.6,50.5,29.97,SSE,159,1.0,1.0,96,0.00,,,0.11,Wunderground v.1.13,2013-02-22 12:15:00,
2013-02-22 06:17:00,51.5,50.4,29.98,SSE,159,0.0,1.0,96,0.00,,,0.11,Wunderground v.1.13,2013-02-22 12:17:00,
2013-02-22 06:18:00,51.5,50.4,29.98,SSE,159,0.0,1.0,96,0.00,,,0.11,Wunderground v.1.13,2013-02-22 12:18:00,
2013-02-22 06:21:00,51.5,50.4,29.98,SSE,159,0.0,0.0,96,0.00,,,0.11,Wunderground v.1.13,2013-02-22 12:21:00,
2013-02-22 06:22:00,51.5,50.4,29.98,SSE,159,0.0,0.0,96,0.00,,,0.11,Wunderground v.1.13,2013-02-22 12:22:00,
2013-02-22 06:23:00,51.5,50.4,29.98,SSE,159,0.0,0.0,96,0.00,,,0.11,Wunderground v.1.13,2013-02-22 12:23:00,
2013-02-22 06:26:00,51.5,50.4,29.98,SSE,159,1.0,1.0,96,0.00,,,0.11,Wunderground v.1.13,2013-02-22 12:26:00,
2013-02-22 06:27:00,51.5,50.4,29.98,SSE,159,2.0,2.0,96,0.00,,,0.11,Wunderground v.1.13,2013-02-22 12:27:00,
2013-02-22 06:28:00,51.5,50.4,29.98,SSE,159,0.0,2.0,96,0.00,,,0.11,Wunderground v.1.13,2013-02-22 12:28:00,
2013-02-22 06:32:00,51.5,50.4,29.98,SSE,159,0.0,0.0,96,0.00,,,0.11,Wunderground v.1.13,2013-02-22 12:32:00,
2013-02-22 06:33:00,51.5,50.4,29.98,SSE,159,0.0,0.0,96,0.00,,,0.11,Wunderground v.1.13,2013-02-22 12:33:00,
2013-02-22 06:38:00,51.5,50.4,29.98,SSE,159,0.0,2.0,96,0.00,,,0.11,Wunderground v.1.13,2013-02-22 12:38:00,
2013-02-22 06:39:00,51.5,50.4,29.98,SSE,159,0.0,2.0,96,0.00,,,0.11,Wunderground v.1.13,2013-02-22 12:39:00,
2013-02-22 06:43:00,51.5,50.4,29.98,SSE,159,0.0,0.0,96,0.00,,,0.11,Wunderground v.1.13,2013-02-22 12:43:00,
2013-02-22 06:44:00,51.5,50.4,29.98,SSE,159,0.0,0.0,96,0.00,,,0.11,Wunderground v.1.13,2013-02-22 12:44:00,
2013-02-22 06:48:00,51.5,50.4,29.99,SSE,159,0.0,0.0,96,0.00,,,0.11,Wunderground v.1.13,2013-02-22 12:48:00,
2013-02-22 06:49:00,51.5,50.4,29.99,SSE,159,0.0,0.0,96,0.00,,,0.11,Wunderground v.1.13,2013-02-22 12:49:00,
2013-02-22 06:53:00,51.3,50.2,29.99,SSE,159,0.0,2.0,96,0.00,,,0.11,Wunderground v.1.13,2013-02-22 12:53:00,
2013-02-22 06:54:00,51.3,50.2,29.99,ESE,110,1.0,2.0,96,0.00,,,0.11,Wunderground v.1.13,2013-02-22 12:54:00,
2013-02-22 06:55:00,51.3,50.2,29.99,ESE,110,0.0,2.0,96,0.00,,,0.11,Wunderground v.1.13,2013-02-22 12:55:00,
2013-02-22 06:58:00,51.3,50.2,29.99,SE,138,0.0,3.0,96,0.00,,,0.11,Wunderground v.1.13,2013-02-22 12:58:00,
2013-02-22 06:59:00,51.3,50.2,29.99,SE,138,0.0,3.0,96,0.00,,,0.11,Wunderground v.1.13,2013-02-22 12:59:00,
2013-02-22 07:00:00,51.3,50.2,29.99,SE,138,0.0,0.0,96,0.00,,,0.11,Wunderground v.1.13,2013-02-22 13:00:00,
2013-02-22 07:03:00,51.3,50.2,29.99,SE,138,0.0,2.0,96,0.00,,,0.11,Wunderground v.1.13,2013-02-22 13:03:00,
2013-02-22 07:05:00,51.3,50.2,29.99,SE,136,0.0,0.0,96,0.00,,,0.11,Wunderground v.1.13,2013-02-22 13:05:00,
2013-02-22 07:08:00,51.3,50.2,29.99,SE,136,0.0,0.0,96,0.00,,,0.11,Wunderground v.1.13,2013-02-22 13:08:00,
2013-02-22 07:10:00,51.5,50.4,29.99,SE,136,0.0,0.0,96,0.00,,,0.11,Wunderground v.1.13,2013-02-22 13:10:00,
2013-02-22 07:13:00,51.5,50.4,29.99,SE,136,0.0,0.0,96,0.00,,,0.11,Wunderground v.1.13,2013-02-22 13:13:00,
2013-02-22 07:15:00,51.3,50.2,29.99,SE,136,0.0,0.0,96,0.00,,,0.11,Wunderground v.1.13,2013-02-22 13:15:00,
2013-02-22 07:18:00,51.3,50.2,29.99,SE,136,0.0,0.0,96,0.00,,,0.11,Wunderground v.1.13,2013-02-22 13:18:00,
2013-02-22 07:19:00,51.3,50.2,29.99,SE,136,0.0,0.0,96,0.00,,,0.11,Wunderground v.1.13,2013-02-22 13:19:00,
2013-02-22 07:21:00,51.3,50.2,29.99,SE,136,0.0,0.0,96,0.00,,,0.11,Wunderground v.1.13,2013-02-22 13:21:00,
2013-02-22 07:23:00,51.3,50.2,29.99,SE,136,0.0,0.0,96,0.00,,,0.11,Wunderground v.1.13,2013-02-22 13:23:00,
2013-02-22 07:24:00,51.3,50.2,29.99,SE,136,0.0,0.0,96,0.00,,,0.11,Wunderground v.1.13,2013-02-22 13:24:00,
2013-02-22 07:26:00,51.5,50.4,29.99,SE,136,0.0,0.0,96,0.00,,,0.11,Wunderground v.1.13,2013-02-22 13:26:00,
2013-02-22 07:28:00,51.5,50.4,29.99,SE,136,0.0,0.0,96,0.00,,,0.11,Wunderground v.1.13,2013-02-22 13:28:00,
2013-02-22 07:29:00,51.5,50.4,29.99,SE,136,0.0,0.0,96,0.00,,,0.11,Wunderground v.1.13,2013-02-22 13:29:00,
2013-02-22 07:31:00,51.5,50.4,29.99,SE,136,0.0,0.0,96,0.00,,,0.11,Wunderground v.1.13,2013-02-22 13:31:00,
2013-02-22 07:33:00,51.5,50.4,30.00,SE,136,0.0,0.0,96,0.00,,,0.11,Wunderground v.1.13,2013-02-22 13:33:00,
2013-02-22 07:34:00,51.5,50.4,30.00,SE,136,0.0,0.0,96,0.00,,,0.11,Wunderground v.1.13,2013-02-22 13:34:00,
2013-02-22 07:36:00,51.5,50.4,30.00,SE,136,0.0,1.0,96,0.00,,,0.11,Wunderground v.1.13,2013-02-22 13:36:00,
2013-02-22 07:39:00,51.5,50.4,30.00,SE,136,0.0,2.0,96,0.00,,,0.11,Wunderground v.1.13,2013-02-22 13:39:00,
2013-02-22 07:41:00,51.5,50.4,30.00,SE,136,0.0,0.0,96,0.00,,,0.11,Wunderground v.1.13,2013-02-22 13:41:00,
2013-02-22 07:44:00,51.5,50.4,30.00,ESE,109,0.0,3.0,96,0.00,,,0.11,Wunderground v.1.13,2013-02-22 13:44:00,
2013-02-22 07:45:00,51.5,50.4,30.00,ESE,109,0.0,0.0,96,0.00,,,0.11,Wunderground v.1.13,2013-02-22 13:45:00,
2013-02-22 07:46:00,51.5,50.4,30.00,ESE,109,0.0,0.0,96,0.00,,,0.11,Wunderground v.1.13,2013-02-22 13:46:00,
2013-02-22 07:49:00,51.5,50.4,30.01,ESE,109,0.0,0.0,96,0.00,,,0.11,Wunderground v.1.13,2013-02-22 13:49:00,
2013-02-22 07:50:00,51.5,50.4,30.01,ESE,109,0.0,0.0,96,0.00,,,0.11,Wunderground v.1.13,2013-02-22 13:50:00,
2013-02-22 07:52:00,51.5,50.4,30.01,ESE,109,0.0,0.0,96,0.00,,,0.11,Wunderground v.1.13,2013-02-22 13:52:00,
2013-02-22 07:54:00,51.6,50.5,30.01,ESE,109,0.0,0.0,96,0.00,,,0.11,Wunderground v.1.13,2013-02-22 13:54:00,
2013-02-22 07:55:00,51.6,50.5,30.01,ESE,109,0.0,0.0,96,0.00,,,0.11,Wunderground v.1.13,2013-02-22 13:55:00,
2013-02-22 07:57:00,51.6,50.5,30.01,ESE,109,0.0,0.0,96,0.00,,,0.11,Wunderground v.1.13,2013-02-22 13:57:00,
2013-02-22 07:59:00,51.6,50.5,30.01,ESE,109,0.0,0.0,96,0.00,,,0.11,Wunderground v.1.13,2013-02-22 13:59:00,
2013-02-22 08:00:00,51.6,50.5,30.01,ESE,109,0.0,0.0,96,0.00,,,0.11,Wunderground v.1.13,2013-02-22 14:00:00,
2013-02-22 08:02:00,51.6,50.5,30.02,ESE,109,0.0,0.0,96,0.00,,,0.11,Wunderground v.1.13,2013-02-22 14:02:00,
2013-02-22 08:04:00,51.6,50.5,30.02,ESE,109,0.0,0.0,96,0.00,,,0.11,Wunderground v.1.13,2013-02-22 14:04:00,
2013-02-22 08:05:00,51.6,50.5,30.02,ESE,109,0.0,0.0,96,0.00,,,0.11,Wunderground v.1.13,2013-02-22 14:05:00,
2013-02-22 08:07:00,51.6,50.5,30.02,ESE,109,0.0,0.0,96,0.00,,,0.11,Wunderground v.1.13,2013-02-22 14:07:00,
2013-02-22 08:10:00,51.8,50.7,30.02,ESE,109,0.0,0.0,96,0.00,,,0.11,Wunderground v.1.13,2013-02-22 14:10:00,
2013-02-22 08:11:00,51.8,50.7,30.02,ESE,109,0.0,0.0,96,0.00,,,0.11,Wunderground v.1.13,2013-02-22 14:11:00,
2013-02-22 08:12:00,51.8,50.7,30.02,ESE,109,0.0,0.0,96,0.00,,,0.11,Wunderground v.1.13,2013-02-22 14:12:00,
2013-02-22 08:15:00,51.8,50.7,30.02,ESE,109,0.0,0.0,96,0.00,,,0.11,Wunderground v.1.13,2013-02-22 14:15:00,
2013-02-22 08:16:00,51.8,50.7,30.02,ESE,109,0.0,0.0,96,0.00,,,0.11,Wunderground v.1.13,2013-02-22 14:16:00,
2013-02-22 08:17:00,51.8,50.7,30.01,ESE,109,0.0,0.0,96,0.00,,,0.11,Wunderground v.1.13,2013-02-22 14:17:00,
2013-02-22 08:20:00,51.8,50.7,30.01,ESE,109,0.0,0.0,96,0.00,,,0.11,Wunderground v.1.13,2013-02-22 14:20:00,
2013-02-22 08:21:00,51.8,50.7,30.01,ESE,109,0.0,0.0,96,0.00,,,0.11,Wunderground v.1.13,2013-02-22 14:21:00,
2013-02-22 08:22:00,51.8,50.7,30.01,ESE,109,0.0,1.0,96,0.00,,,0.11,Wunderground v.1.13,2013-02-22 14:22:00,
2013-02-22 08:25:00,51.8,50.4,30.01,ESE,109,0.0,0.0,95,0.00,,,0.11,Wunderground v.1.13,2013-02-22 14:25:00,
2013-02-22 08:26:00,51.9,50.5,30.01,ESE,109,0.0,0.0,95,0.00,,,0.11,Wunderground v.1.13,2013-02-22 14:26:00,
2013-02-22 08:27:00,51.9,50.5,30.01,ESE,109,0.0,0.0,95,0.00,,,0.11,Wunderground v.1.13,2013-02-22 14:27:00,
2013-02-22 08:30:00,51.9,50.5,30.01,ESE,109,0.0,0.0,95,0.00,,,0.11,Wunderground v.1.13,2013-02-22 14:30:00,
2013-02-22 08:32:00,51.9,50.5,30.02,ESE,109,0.0,0.0,95,0.00,,,0.11,Wunderground v.1.13,2013-02-22 14:32:00,
2013-02-22 08:35:00,51.9,50.5,30.02,ESE,109,0.0,0.0,95,0.00,,,0.11,Wunderground v.1.13,2013-02-22 14:35:00,
2013-02-22 08:37:00,51.9,50.5,30.02,ESE,109,0.0,0.0,95,0.00,,,0.11,Wunderground v.1.13,2013-02-22 14:37:00,
2013-02-22 08:38:00,52.1,50.7,30.02,ESE,109,0.0,0.0,95,0.00,,,0.11,Wunderground v.1.13,2013-02-22 14:38:00,
2013-02-22 08:41:00,52.1,50.7,30.02,ESE,109,0.0,2.0,95,0.00,,,0.11,Wunderground v.1.13,2013-02-22 14:41:00,
2013-02-22 08:42:00,52.1,50.7,30.02,ESE,109,0.0,2.0,95,0.00,,,0.11,Wunderground v.1.13,2013-02-22 14:42:00,
2013-02-22 08:43:00,52.1,50.7,30.02,ESE,109,0.0,2.0,95,0.00,,,0.11,Wunderground v.1.13,2013-02-22 14:43:00,
2013-02-22 08:47:00,52.2,50.8,30.02,ESE,109,0.0,0.0,95,0.00,,,0.11,Wunderground v.1.13,2013-02-22 14:47:00,
2013-02-22 08:48:00,52.2,50.8,30.02,ESE,109,0.0,0.0,95,0.00,,,0.11,Wunderground v.1.13,2013-02-22 14:48:00,
2013-02-22 08:52:00,52.2,50.8,30.02,ESE,109,1.0,2.0,95,0.00,,,0.11,Wunderground v.1.13,2013-02-22 14:52:00,
2013-02-22 08:53:00,52.2,50.8,30.02,ESE,109,0.0,2.0,95,0.00,,,0.11,Wunderground v.1.13,2013-02-22 14:53:00,
2013-02-22 08:57:00,52.4,51.0,30.02,ESE,109,0.0,1.0,95,0.00,,,0.11,Wunderground v.1.13,2013-02-22 14:57:00,
2013-02-22 08:58:00,52.4,51.0,30.02,ESE,109,2.0,2.0,95,0.00,,,0.11,Wunderground v.1.13,2013-02-22 14:58:00,
2013-02-22 09:02:00,52.4,51.0,30.01,ESE,107,0.0,2.0,95,0.00,,,0.11,Wunderground v.1.13,2013-02-22 15:02:00,
2013-02-22 09:03:00,52.4,51.0,30.01,ESE,107,0.0,2.0,95,0.00,,,0.11,Wunderground v.1.13,2013-02-22 15:03:00,
2013-02-22 09:08:00,52.4,51.0,30.01,ESE,107,0.0,3.0,95,0.00,,,0.11,Wunderground v.1.13,2013-02-22 15:08:00,
2013-02-22 09:09:00,52.4,51.0,30.01,ESE,107,0.0,3.0,95,0.00,,,0.11,Wunderground v.1.13,2013-02-22 15:09:00,
2013-02-22 09:13:00,52.5,51.1,30.01,ESE,107,0.0,0.0,95,0.00,,,0.11,Wunderground v.1.13,2013-02-22 15:13:00,
2013-02-22 09:14:00,52.5,51.1,30.01,ESE,102,1.0,2.0,95,0.00,,,0.11,Wunderground v.1.13,2013-02-22 15:14:00,
2013-02-22 09:18:00,52.7,51.3,30.02,ESE,102,0.0,0.0,95,0.00,,,0.11,Wunderground v.1.13,2013-02-22 15:18:00,
2013-02-22 09:19:00,52.7,51.3,30.02,ESE,102,0.0,0.0,95,0.00,,,0.11,Wunderground v.1.13,2013-02-22 15:19:00,
2013-02-22 09:23:00,52.7,51.3,30.02,ENE,67,0.0,3.0,95,0.00,,,0.11,Wunderground v.1.13,2013-02-22 15:23:00,
2013-02-22 09:24:00,52.7,51.0,30.02,ENE,67,0.0,3.0,94,0.00,,,0.11,Wunderground v.1.13,2013-02-22 15:24:00,
2013-02-22 09:28:00,52.7,51.0,30.02,ENE,72,0.0,2.0,94,0.00,,,0.11,Wunderground v.1.13,2013-02-22 15:28:00,
2013-02-22 09:29:00,52.7,51.0,30.02,ENE,74,1.0,2.0,94,0.00,,,0.11,Wunderground v.1.13,2013-02-22 15:29:00,
2013-02-22 09:33:00,52.7,51.0,30.04,ENE,74,0.0,1.0,94,0.00,,,0.11,Wunderground v.1.13,2013-02-22 15:33:00,
2013-02-22 09:34:00,52.7,51.0,30.04,ENE,74,0.0,1.0,94,0.00,,,0.11,Wunderground v.1.13,2013-02-22 15:34:00,
2013-02-22 09:38:00,52.7,51.0,30.04,ENE,74,0.0,1.0,94,0.00,,,0.11,Wunderground v.1.13,2013-02-22 15:38:00,
2013-02-22 09:39:00,52.7,51.0,30.04,ENE,74,0.0,1.0,94,0.00,,,0.11,Wunderground v.1.13,2013-02-22 15:39:00,
2013-02-22 09:43:00,52.8,51.1,30.04,ENE,57,0.0,2.0,94,0.00,,,0.11,Wunderground v.1.13,2013-02-22 15:43:00,
2013-02-22 09:44:00,52.8,51.1,30.04,ENE,57,0.0,2.0,94,0.00,,,0.11,Wunderground v.1.13,2013-02-22 15:44:00,
2013-02-22 09:45:00,52.8,51.1,30.04,ENE,57,0.0,0.0,94,0.00,,,0.11,Wunderground v.1.13,2013-02-22 15:45:00,
2013-02-22 09:49:00,53.0,51.3,30.02,ENE,61,0.0,1.0,94,0.00,,,0.11,Wunderground v.1.13,2013-02-22 15:49:00,
2013-02-22 09:50:00,53.0,51.3,30.02,ENE,61,0.0,0.0,94,0.00,,,0.11,Wunderground v.1.13,2013-02-22 15:50:00,
2013-02-22 09:54:00,53.0,51.3,30.02,ENE,61,0.0,1.0,94,0.00,,,0.11,Wunderground v.1.13,2013-02-22 15:54:00,
2013-02-22 09:55:00,53.0,51.3,30.02,ENE,61,0.0,0.0,94,0.00,,,0.11,Wunderground v.1.13,2013-02-22 15:55:00,
2013-02-22 09:59:00,53.1,51.4,30.02,ENE,61,0.0,0.0,94,0.00,,,0.11,Wunderground v.1.13,2013-02-22 15:59:00,
2013-02-22 10:00:00,53.1,51.4,30.02,ENE,61,0.0,0.0,94,0.00,,,0.11,Wunderground v.1.13,2013-02-22 16:00:00,
2013-02-22 10:01:00,53.3,51.6,30.02,ENE,61,0.0,0.0,94,0.00,,,0.11,Wunderground v.1.13,2013-02-22 16:01:00,
2013-02-22 10:04:00,53.3,51.6,30.03,ESE,123,4.0,5.0,94,0.00,,,0.11,Wunderground v.1.13,2013-02-22 16:04:00,
2013-02-22 10:05:00,53.3,51.6,30.03,SE,136,0.0,0.0,94,0.00,,,0.11,Wunderground v.1.13,2013-02-22 16:05:00,
2013-02-22 10:06:00,53.3,51.6,30.03,SE,136,0.0,1.0,94,0.00,,,0.11,Wunderground v.1.13,2013-02-22 16:06:00,
2013-02-22 10:09:00,53.3,51.6,30.03,SE,129,0.0,4.0,94,0.00,,,0.11,Wunderground v.1.13,2013-02-22 16:09:00,
2013-02-22 10:10:00,53.3,51.6,30.03,SE,129,0.0,0.0,94,0.00,,,0.11,Wunderground v.1.13,2013-02-22 16:10:00,
2013-02-22 10:11:00,53.3,51.6,30.03,SE,129,0.0,0.0,94,0.00,,,0.11,Wunderground v.1.13,2013-02-22 16:11:00,
2013-02-22 10:15:00,53.4,51.7,30.03,SE,129,0.0,0.0,94,0.00,,,0.11,Wunderground v.1.13,2013-02-22 16:15:00,
2013-02-22 10:16:00,53.4,51.4,30.03,SE,129,0.0,0.0,93,0.00,,,0.11,Wunderground v.1.13,2013-02-22 16:16:00,
2013-02-22 10:20:00,53.6,51.6,30.04,SE,129,0.0,1.0,93,0.00,,,0.11,Wunderground v.1.13,2013-02-22 16:20:00,
2013-02-22 10:21:00,53.7,51.7,30.04,SE,124,0.0,1.0,93,0.00,,,0.11,Wunderground v.1.13,2013-02-22 16:21:00,
2013-02-22 10:25:00,53.7,51.7,30.04,SE,124,0.0,0.0,93,0.00,,,0.11,Wunderground v.1.13,2013-02-22 16:25:00,
2013-02-22 10:26:00,53.7,51.7,30.04,SE,124,2.0,2.0,93,0.00,,,0.11,Wunderground v.1.13,2013-02-22 16:26:00,
2013-02-22 10:27:00,53.7,51.7,30.04,SE,124,0.0,2.0,93,0.00,,,0.11,Wunderground v.1.13,2013-02-22 16:27:00,
2013-02-22 10:31:00,53.7,51.7,30.04,SE,124,2.0,2.0,93,0.00,,,0.11,Wunderground v.1.13,2013-02-22 16:31:00,
2013-02-22 10:32:00,53.6,51.6,30.04,ESE,120,0.0,3.0,93,0.00,,,0.11,Wunderground v.1.13,2013-02-22 16:32:00,
2013-02-22 10:33:00,53.6,51.6,30.04,ESE,120,0.0,3.0,93,0.00,,,0.11,Wunderground v.1.13,2013-02-22 16:33:00,
2013-02-22 10:36:00,53.7,51.7,30.04,ESE,120,0.0,0.0,93,0.00,,,0.11,Wunderground v.1.13,2013-02-22 16:36:00,
2013-02-22 10:37:00,53.7,51.7,30.04,ESE,120,0.0,0.0,93,0.00,,,0.11,Wunderground v.1.13,2013-02-22 16:37:00,
2013-02-22 10:38:00,53.7,51.7,30.04,ESE,120,0.0,0.0,93,0.00,,,0.11,Wunderground v.1.13,2013-02-22 16:38:00,
2013-02-22 10:41:00,53.9,51.9,30.04,ESE,120,0.0,0.0,93,0.00,,,0.11,Wunderground v.1.13,2013-02-22 16:41:00,
2013-02-22 10:42:00,53.9,51.9,30.04,ESE,120,0.0,0.0,93,0.00,,,0.11,Wunderground v.1.13,2013-02-22 16:42:00,
2013-02-22 10:43:00,54.0,52.0,30.04,ESE,120,0.0,0.0,93,0.00,,,0.11,Wunderground v.1.13,2013-02-22 16:43:00,
2013-02-22 10:46:00,54.0,52.0,30.04,ESE,120,0.0,0.0,93,0.00,,,0.11,Wunderground v.1.13,2013-02-22 16:46:00,
2013-02-22 10:47:00,54.1,52.1,30.03,ESE,120,0.0,1.0,93,0.00,,,0.11,Wunderground v.1.13,2013-02-22 16:47:00,
2013-02-22 10:48:00,54.1,52.1,30.03,ESE,120,0.0,1.0,93,0.00,,,0.11,Wunderground v.1.13,2013-02-22 16:48:00,
2013-02-22 10:51:00,54.1,52.1,30.03,ESE,120,0.0,1.0,93,0.00,,,0.11,Wunderground v.1.13,2013-02-22 16:51:00,
2013-02-22 10:52:00,54.1,52.1,30.03,ESE,120,0.0,1.0,93,0.00,,,0.11,Wunderground v.1.13,2013-02-22 16:52:00,
2013-02-22 10:54:00,54.1,52.1,30.03,ESE,120,0.0,1.0,93,0.00,,,0.11,Wunderground v.1.13,2013-02-22 16:54:00,
2013-02-22 10:56:00,54.1,51.8,30.03,ESE,121,0.0,2.0,92,0.00,,,0.11,Wunderground v.1.13,2013-02-22 16:56:00,
2013-02-22 10:57:00,54.1,51.8,30.03,NNE,25,0.0,3.0,92,0.00,,,0.11,Wunderground v.1.13,2013-02-22 16:57:00,
2013-02-22 10:58:00,54.1,51.8,30.03,NNE,25,0.0,3.0,92,0.00,,,0.11,Wunderground v.1.13,2013-02-22 16:58:00,
2013-02-22 10:59:00,54.1,51.8,30.03,SE,145,3.0,4.0,92,0.00,,,0.11,Wunderground v.1.13,2013-02-22 16:59:00,
2013-02-22 11:01:00,54.3,52.0,30.03,SE,145,1.0,1.0,92,0.00,,,0.11,Wunderground v.1.13,2013-02-22 17:01:00,
2013-02-22 11:03:00,54.3,52.0,30.04,ESE,117,1.0,3.0,92,0.00,,,0.11,Wunderground v.1.13,2013-02-22 17:03:00,
2013-02-22 11:04:00,54.3,52.0,30.04,ESE,120,1.0,3.0,92,0.00,,,0.11,Wunderground v.1.13,2013-02-22 17:04:00,
2013-02-22 11:06:00,54.3,52.0,30.04,ESE,120,0.0,1.0,92,0.00,,,0.11,Wunderground v.1.13,2013-02-22 17:06:00,
2013-02-22 11:08:00,54.4,52.1,30.04,ESE,121,2.0,2.0,92,0.00,,,0.11,Wunderground v.1.13,2013-02-22 17:08:00,
2013-02-22 11:09:00,54.4,51.8,30.04,SSE,151,2.0,4.0,91,0.00,,,0.11,Wunderground v.1.13,2013-02-22 17:09:00,
2013-02-22 11:12:00,54.4,51.8,30.04,SSE,165,1.0,2.0,91,0.00,,,0.11,Wunderground v.1.13,2013-02-22 17:12:00,
2013-02-22 11:13:00,54.6,52.0,30.04,SSE,165,1.0,2.0,91,0.00,,,0.11,Wunderground v.1.13,2013-02-22 17:13:00,
2013-02-22 11:14:00,54.6,52.0,30.04,SSE,165,0.0,2.0,91,0.00,,,0.11,Wunderground v.1.13,2013-02-22 17:14:00,
2013-02-22 11:17:00,54.7,52.1,30.04,SSE,159,0.0,2.0,91,0.00,,,0.11,Wunderground v.1.13,2013-02-22 17:17:00,
2013-02-22 11:18:00,54.7,52.1,30.04,SSE,159,0.0,2.0,91,0.00,,,0.11,Wunderground v.1.13,2013-02-22 17:18:00,
2013-02-22 11:19:00,54.7,52.1,30.04,SSE,159,0.0,2.0,91,0.00,,,0.11,Wunderground v.1.13,2013-02-22 17:19:00,
2013-02-22 11:20:00,54.7,52.1,30.04,South,176,3.0,5.0,91,0.00,,,0.11,Wunderground v.1.13,2013-02-22 17:20:00,
2013-02-22 11:22:00,54.7,51.8,30.04,South,170,0.0,5.0,90,0.00,,,0.11,Wunderground v.1.13,2013-02-22 17:22:00,
2013-02-22 11:23:00,54.9,52.3,30.04,South,170,0.0,5.0,91,0.00,,,0.11,Wunderground v.1.13,2013-02-22 17:23:00,
2013-02-22 11:24:00,54.9,52.3,30.04,South,170,0.0,5.0,91,0.00,,,0.11,Wunderground v.1.13,2013-02-22 17:24:00,
2013-02-22 11:25:00,54.9,52.0,30.04,South,170,0.0,0.0,90,0.00,,,0.11,Wunderground v.1.13,2013-02-22 17:25:00,
2013-02-22 11:27:00,54.9,52.0,30.04,South,170,0.0,1.0,90,0.00,,,0.11,Wunderground v.1.13,2013-02-22 17:27:00,
2013-02-22 11:28:00,54.9,52.0,30.04,South,170,1.0,1.0,90,0.00,,,0.11,Wunderground v.1.13,2013-02-22 17:28:00,
2013-02-22 11:29:00,54.9,52.0,30.04,South,170,0.0,2.0,90,0.00,,,0.11,Wunderground v.1.13,2013-02-22 17:29:00,
2013-02-22 11:30:00,54.9,52.0,30.04,South,170,0.0,0.0,90,0.00,,,0.11,Wunderground v.1.13,2013-02-22 17:30:00,
2013-02-22 11:32:00,54.9,52.0,30.03,East,97,0.0,3.0,90,0.00,,,0.11,Wunderground v.1.13,2013-02-22 17:32:00,
2013-02-22 11:33:00,55.0,52.1,30.03,ENE,74,0.0,3.0,90,0.00,,,0.11,Wunderground v.1.13,2013-02-22 17:33:00,
2013-02-22 11:35:00,55.0,52.1,30.03,ENE,74,0.0,0.0,90,0.00,,,0.11,Wunderground v.1.13,2013-02-22 17:35:00,
2013-02-22 11:37:00,55.2,52.3,30.03,ENE,74,0.0,2.0,90,0.00,,,0.11,Wunderground v.1.13,2013-02-22 17:37:00,
2013-02-22 11:39:00,55.3,52.4,30.03,ENE,74,0.0,2.0,90,0.00,,,0.11,Wunderground v.1.13,2013-02-22 17:39:00,
2013-02-22 11:40:00,55.3,52.4,30.03,ENE,74,0.0,0.0,90,0.00,,,0.11,Wunderground v.1.13,2013-02-22 17:40:00,
2013-02-22 11:43:00,55.3,52.4,30.03,SE,128,4.0,4.0,90,0.00,,,0.11,Wunderground v.1.13,2013-02-22 17:43:00,
2013-02-22 11:45:00,55.3,52.4,30.03,East,98,0.0,0.0,90,0.00,,,0.11,Wunderground v.1.13,2013-02-22 17:45:00,
2013-02-22 11:48:00,55.5,52.3,30.02,SSE,150,0.0,4.0,89,0.00,,,0.11,Wunderground v.1.13,2013-02-22 17:48:00,
2013-02-22 11:50:00,55.5,52.3,30.02,SSE,150,1.0,2.0,89,0.00,,,0.11,Wunderground v.1.13,2013-02-22 17:50:00,
2013-02-22 11:51:00,55.5,52.3,30.02,SSE,150,0.0,2.0,89,0.00,,,0.11,Wunderground v.1.13,2013-02-22 17:51:00,
2013-02-22 11:53:00,55.6,52.4,30.02,SSE,150,0.0,2.0,89,0.00,,,0.11,Wunderground v.1.13,2013-02-22 17:53:00,
2013-02-22 11:55:00,55.5,52.3,30.02,SSE,160,0.0,1.0,89,0.00,,,0.11,Wunderground v.1.13,2013-02-22 17:55:00,
2013-02-22 11:56:00,55.5,52.3,30.02,SSE,160,0.0,1.0,89,0.00,,,0.11,Wunderground v.1.13,2013-02-22 17:56:00,
2013-02-22 11:59:00,55.5,52.3,30.02,SSE,160,1.0,1.0,89,0.00,,,0.11,Wunderground v.1.13,2013-02-22 17:59:00,
2013-02-22 12:01:00,55.5,52.3,30.02,SSE,160,0.0,0.0,89,0.00,,,0.11,Wunderground v.1.13,2013-02-22 18:01:00,
2013-02-22 12:04:00,55.5,52.3,30.02,SSE,161,0.0,2.0,89,0.00,,,0.11,Wunderground v.1.13,2013-02-22 18:04:00,
2013-02-22 12:06:00,55.5,52.3,30.02,SSE,161,0.0,1.0,89,0.00,,,0.11,Wunderground v.1.13,2013-02-22 18:06:00,
2013-02-22 12:09:00,55.5,52.3,30.02,SSE,161,0.0,1.0,89,0.00,,,0.11,Wunderground v.1.13,2013-02-22 18:09:00,
2013-02-22 12:11:00,55.6,52.4,30.02,SSE,161,0.0,1.0,89,0.00,,,0.11,Wunderground v.1.13,2013-02-22 18:11:00,
2013-02-22 12:12:00,55.6,52.4,30.02,SSE,161,1.0,1.0,89,0.00,,,0.11,Wunderground v.1.13,2013-02-22 18:12:00,
2013-02-22 12:14:00,55.5,52.0,30.02,SSE,161,0.0,3.0,88,0.00,,,0.11,Wunderground v.1.13,2013-02-22 18:14:00,
2013-02-22 12:16:00,55.5,52.3,30.02,SSE,161,1.0,2.0,89,0.00,,,0.11,Wunderground v.1.13,2013-02-22 18:16:00,
2013-02-22 12:17:00,55.5,52.3,30.01,SSE,161,0.0,3.0,89,0.00,,,0.11,Wunderground v.1.13,2013-02-22 18:17:00,
2013-02-22 12:19:00,55.5,52.3,30.01,North,351,1.0,4.0,89,0.00,,,0.11,Wunderground v.1.13,2013-02-22 18:19:00,
2013-02-22 12:21:00,55.3,52.1,30.01,North,351,2.0,2.0,89,0.00,,,0.11,Wunderground v.1.13,2013-02-22 18:21:00,
2013-02-22 12:22:00,55.3,52.1,30.01,North,351,2.0,2.0,89,0.00,,,0.11,Wunderground v.1.13,2013-02-22 18:22:00,
2013-02-22 12:24:00,55.3,52.1,30.01,North,351,1.0,3.0,89,0.00,,,0.11,Wunderground v.1.13,2013-02-22 18:24:00,
2013-02-22 12:27:00,55.5,52.3,30.01,North,351,0.0,1.0,89,0.00,,,0.11,Wunderground v.1.13,2013-02-22 18:27:00,
2013-02-22 12:29:00,55.6,52.4,30.01,SSE,149,0.0,1.0,89,0.00,,,0.11,Wunderground v.1.13,2013-02-22 18:29:00,
2013-02-22 12:32:00,55.6,52.4,29.99,SSE,149,0.0,1.0,89,0.00,,,0.11,Wunderground v.1.13,2013-02-22 18:32:00,
2013-02-22 12:33:00,55.8,52.6,29.99,SSE,149,0.0,1.0,89,0.00,,,0.11,Wunderground v.1.13,2013-02-22 18:33:00,
2013-02-22 12:35:00,55.8,52.6,29.99,SE,134,0.0,0.0,89,0.00,,,0.11,Wunderground v.1.13,2013-02-22 18:35:00,
2013-02-22 12:37:00,55.9,52.7,29.99,SE,134,0.0,1.0,89,0.00,,,0.11,Wunderground v.1.13,2013-02-22 18:37:00,
2013-02-22 12:38:00,55.9,52.7,29.99,SE,134,0.0,2.0,89,0.00,,,0.11,Wunderground v.1.13,2013-02-22 18:38:00,
2013-02-22 12:40:00,55.9,52.4,29.99,East,90,2.0,2.0,88,0.00,,,0.11,Wunderground v.1.13,2013-02-22 18:40:00,
2013-02-22 12:42:00,55.9,52.4,29.99,East,90,0.0,2.0,88,0.00,,,0.11,Wunderground v.1.13,2013-02-22 18:42:00,
2013-02-22 12:43:00,55.9,52.4,29.99,East,90,0.0,2.0,88,0.00,,,0.11,Wunderground v.1.13,2013-02-22 18:43:00,
2013-02-22 12:45:00,56.1,52.6,29.99,East,90,0.0,1.0,88,0.00,,,0.11,Wunderground v.1.13,2013-02-22 18:45:00,
2013-02-22 12:47:00,56.1,52.6,29.99,East,90,0.0,1.0,88,0.00,,,0.11,Wunderground v.1.13,2013-02-22 18:47:00,
2013-02-22 12:48:00,56.1,52.6,29.99,South,175,3.0,3.0,88,0.00,,,0.11,Wunderground v.1.13,2013-02-22 18:48:00,
2013-02-22 12:51:00,55.9,52.4,29.99,South,173,0.0,0.0,88,0.00,,,0.11,Wunderground v.1.13,2013-02-22 18:51:00,
2013-02-22 12:52:00,55.9,52.1,29.99,SE,145,0.0,4.0,87,0.00,,,0.11,Wunderground v.1.13,2013-02-22 18:52:00,
2013-02-22 12:53:00,55.9,52.1,29.99,SE,145,0.0,4.0,87,0.00,,,0.11,Wunderground v.1.13,2013-02-22 18:53:00,
2013-02-22 12:56:00,55.9,52.4,29.99,SE,145,0.0,1.0,88,0.00,,,0.11,Wunderground v.1.13,2013-02-22 18:56:00,
2013-02-22 12:57:00,55.9,52.4,29.99,SE,145,0.0,1.0,88,0.00,,,0.11,Wunderground v.1.13,2013-02-22 18:57:00,
2013-02-22 12:58:00,55.9,52.4,29.99,SE,145,0.0,1.0,88,0.00,,,0.11,Wunderground v.1.13,2013-02-22 18:58:00,
2013-02-22 13:01:00,55.9,52.1,29.99,SE,145,0.0,0.0,87,0.00,,,0.11,Wunderground v.1.13,2013-02-22 19:01:00,
2013-02-22 13:03:00,55.9,52.1,30.00,SE,145,0.0,0.0,87,0.00,,,0.11,Wunderground v.1.13,2013-02-22 19:03:00,
2013-02-22 13:06:00,56.1,52.3,30.00,SE,145,0.0,1.0,87,0.00,,,0.11,Wunderground v.1.13,2013-02-22 19:06:00,
2013-02-22 13:08:00,56.1,52.6,30.00,SE,145,2.0,2.0,88,0.00,,,0.11,Wunderground v.1.13,2013-02-22 19:08:00,
2013-02-22 13:11:00,56.1,52.3,30.00,SE,145,1.0,1.0,87,0.00,,,0.11,Wunderground v.1.13,2013-02-22 19:11:00,
2013-02-22 13:13:00,56.1,52.3,30.00,SE,145,0.0,1.0,87,0.00,,,0.11,Wunderground v.1.13,2013-02-22 19:13:00,
2013-02-22 13:16:00,56.1,52.3,30.00,SE,145,0.0,1.0,87,0.00,,,0.11,Wunderground v.1.13,2013-02-22 19:16:00,
2013-02-22 13:18:00,56.1,52.3,30.00,SE,145,0.0,1.0,87,0.00,,,0.11,Wunderground v.1.13,2013-02-22 19:18:00,
2013-02-22 13:19:00,56.1,52.3,30.00,SE,145,0.0,1.0,87,0.00,,,0.11,Wunderground v.1.13,2013-02-22 19:19:00,
2013-02-22 13:21:00,56.1,52.3,30.00,SE,145,0.0,0.0,87,0.00,,,0.11,Wunderground v.1.13,2013-02-22 19:21:00,
2013-02-22 13:23:00,56.1,52.3,30.00,SE,145,0.0,0.0,87,0.00,,,0.11,Wunderground v.1.13,2013-02-22 19:23:00,
2013-02-22 13:24:00,56.1,52.3,30.00,SE,145,0.0,0.0,87,0.00,,,0.11,Wunderground v.1.13,2013-02-22 19:24:00,
2013-02-22 13:26:00,56.1,52.3,30.00,SE,145,0.0,0.0,87,0.00,,,0.11,Wunderground v.1.13,2013-02-22 19:26:00,
2013-02-22 13:28:00,56.1,52.3,30.00,SE,145,0.0,0.0,87,0.00,,,0.11,Wunderground v.1.13,2013-02-22 19:28:00,
2013-02-22 13:29:00,55.9,52.1,30.00,SE,145,0.0,0.0,87,0.00,,,0.11,Wunderground v.1.13,2013-02-22 19:29:00,
2013-02-22 13:32:00,55.9,52.1,30.00,SE,145,0.0,0.0,87,0.00,,,0.11,Wunderground v.1.13,2013-02-22 19:32:00,
2013-02-22 13:33:00,55.9,52.1,30.00,SE,145,0.0,0.0,87,0.00,,,0.11,Wunderground v.1.13,2013-02-22 19:33:00,
2013-02-22 13:34:00,55.9,52.4,30.00,SE,145,0.0,0.0,88,0.00,,,0.11,Wunderground v.1.13,2013-02-22 19:34:00,
2013-02-22 13:37:00,56.1,52.6,30.00,SE,145,0.0,0.0,88,0.00,,,0.11,Wunderground v.1.13,2013-02-22 19:37:00,
2013-02-22 13:38:00,56.1,52.6,30.00,SE,145,0.0,1.0,88,0.00,,,0.11,Wunderground v.1.13,2013-02-22 19:38:00,
2013-02-22 13:39:00,56.1,52.6,30.00,SE,145,0.0,1.0,88,0.00,,,0.11,Wunderground v.1.13,2013-02-22 19:39:00,
2013-02-22 13:42:00,56.1,52.6,30.00,SE,145,0.0,0.0,88,0.00,,,0.11,Wunderground v.1.13,2013-02-22 19:42:00,
2013-02-22 13:44:00,56.1,52.6,30.00,SE,145,0.0,0.0,88,0.00,,,0.11,Wunderground v.1.13,2013-02-22 19:44:00,
2013-02-22 13:47:00,56.1,52.6,29.99,SE,145,0.0,0.0,88,0.00,,,0.11,Wunderground v.1.13,2013-02-22 19:47:00,
2013-02-22 13:49:00,56.1,52.6,29.99,SE,145,0.0,0.0,88,0.00,,,0.11,Wunderground v.1.13,2013-02-22 19:49:00,
2013-02-22 13:52:00,56.1,52.6,29.99,SE,145,0.0,0.0,88,0.00,,,0.11,Wunderground v.1.13,2013-02-22 19:52:00,
2013-02-22 13:54:00,56.1,52.6,29.99,SE,145,0.0,0.0,88,0.00,,,0.11,Wunderground v.1.13,2013-02-22 19:54:00,
2013-02-22 13:55:00,56.1,52.6,29.99,SE,145,0.0,0.0,88,0.00,,,0.11,Wunderground v.1.13,2013-02-22 19:55:00,
2013-02-22 13:57:00,56.1,52.6,29.99,SE,145,0.0,0.0,88,0.00,,,0.11,Wunderground v.1.13,2013-02-22 19:57:00,
2013-02-22 13:59:00,56.1,52.6,29.99,SE,145,1.0,1.0,88,0.00,,,0.11,Wunderground v.1.13,2013-02-22 19:59:00,
2013-02-22 14:00:00,56.1,52.6,29.99,SE,145,0.0,0.0,88,0.00,,,0.11,Wunderground v.1.13,2013-02-22 20:00:00,
2013-02-22 14:03:00,56.1,52.6,29.96,SE,145,0.0,0.0,88,0.00,,,0.11,Wunderground v.1.13,2013-02-22 20:03:00,
2013-02-22 14:04:00,56.1,52.6,29.96,SE,145,0.0,0.0,88,0.00,,,0.11,Wunderground v.1.13,2013-02-22 20:04:00,
2013-02-22 14:05:00,56.1,52.6,29.96,SE,145,0.0,0.0,88,0.00,,,0.11,Wunderground v.1.13,2013-02-22 20:05:00,
2013-02-22 14:08:00,56.1,52.6,29.96,SE,145,0.0,0.0,88,0.00,,,0.11,Wunderground v.1.13,2013-02-22 20:08:00,
2013-02-22 14:09:00,56.1,52.6,29.96,SE,145,0.0,0.0,88,0.00,,,0.11,Wunderground v.1.13,2013-02-22 20:09:00,
2013-02-22 14:10:00,56.1,52.6,29.96,SE,145,2.0,2.0,88,0.00,,,0.11,Wunderground v.1.13,2013-02-22 20:10:00,
2013-02-22 14:13:00,56.1,52.6,29.96,North,360,2.0,4.0,88,0.00,,,0.11,Wunderground v.1.13,2013-02-22 20:13:00,
2013-02-22 14:14:00,55.9,52.4,29.96,North,360,0.0,4.0,88,0.00,,,0.11,Wunderground v.1.13,2013-02-22 20:14:00,
2013-02-22 14:15:00,55.9,52.7,29.96,North,360,0.0,2.0,89,0.00,,,0.11,Wunderground v.1.13,2013-02-22 20:15:00,
2013-02-22 14:18:00,55.8,52.6,29.95,North,360,3.0,3.0,89,0.00,,,0.11,Wunderground v.1.13,2013-02-22 20:18:00,
2013-02-22 14:19:00,55.8,52.6,29.95,North,360,1.0,3.0,89,0.00,,,0.11,Wunderground v.1.13,2013-02-22 20:19:00,
2013-02-22 14:20:00,55.8,52.6,29.95,North,360,0.0,1.0,89,0.00,,,0.11,Wunderground v.1.13,2013-02-22 20:20:00,
2013-02-22 14:21:00,55.8,52.6,29.95,North,360,2.0,2.0,89,0.00,,,0.11,Wunderground v.1.13,2013-02-22 20:21:00,
2013-02-22 14:23:00,55.8,52.6,29.95,North,360,0.0,2.0,89,0.00,,,0.11,Wunderground v.1.13,2013-02-22 20:23:00,
2013-02-22 14:25:00,55.8,52.9,29.95,North,360,0.0,1.0,90,0.00,,,0.11,Wunderground v.1.13,2013-02-22 20:25:00,
2013-02-22 14:26:00,55.8,52.9,29.95,North,360,0.0,1.0,90,0.00,,,0.11,Wunderground v.1.13,2013-02-22 20:26:00,
2013-02-22 14:28:00,55.8,52.9,29.95,North,360,0.0,1.0,90,0.00,,,0.11,Wunderground v.1.13,2013-02-22 20:28:00,
2013-02-22 14:30:00,55.9,53.0,29.95,North,360,0.0,0.0,90,0.00,,,0.11,Wunderground v.1.13,2013-02-22 20:30:00,
2013-02-22 14:31:00,55.9,53.0,29.95,North,360,0.0,1.0,90,0.00,,,0.11,Wunderground v.1.13,2013-02-22 20:31:00,
2013-02-22 14:32:00,55.9,53.0,29.93,North,360,0.0,2.0,90,0.00,,,0.11,Wunderground v.1.13,2013-02-22 20:32:00,
2013-02-22 14:33:00,55.9,53.0,29.93,North,360,0.0,2.0,90,0.00,,,0.11,Wunderground v.1.13,2013-02-22 20:33:00,
2013-02-22 14:35:00,55.9,53.0,29.93,North,360,0.0,0.0,90,0.00,,,0.11,Wunderground v.1.13,2013-02-22 20:35:00,
2013-02-22 14:36:00,55.9,53.0,29.93,North,360,0.0,0.0,90,0.00,,,0.11,Wunderground v.1.13,2013-02-22 20:36:00,
2013-02-22 14:37:00,55.9,53.0,29.93,North,360,0.0,0.0,90,0.00,,,0.11,Wunderground v.1.13,2013-02-22 20:37:00,
2013-02-22 14:38:00,55.9,53.0,29.93,North,360,0.0,0.0,90,0.00,,,0.11,Wunderground v.1.13,2013-02-22 20:38:00,
2013-02-22 14:40:00,55.9,53.0,29.93,North,360,0.0,0.0,90,0.00,,,0.11,Wunderground v.1.13,2013-02-22 20:40:00,
2013-02-22 14:41:00,55.9,53.0,29.93,North,360,1.0,1.0,90,0.00,,,0.11,Wunderground v.1.13,2013-02-22 20:41:00,
2013-02-22 14:42:00,55.9,53.0,29.93,North,360,0.0,2.0,90,0.00,,,0.11,Wunderground v.1.13,2013-02-22 20:42:00,
2013-02-22 14:43:00,55.9,53.0,29.93,North,360,0.0,2.0,90,0.00,,,0.11,Wunderground v.1.13,2013-02-22 20:43:00,
2013-02-22 14:45:00,55.8,52.9,29.93,North,360,0.0,0.0,90,0.00,,,0.11,Wunderground v.1.13,2013-02-22 20:45:00,
2013-02-22 14:46:00,55.8,52.9,29.93,North,360,0.0,0.0,90,0.00,,,0.11,Wunderground v.1.13,2013-02-22 20:46:00,
2013-02-22 14:48:00,55.8,52.9,29.96,North,360,0.0,0.0,90,0.00,,,0.11,Wunderground v.1.13,2013-02-22 20:48:00,
2013-02-22 14:50:00,55.8,52.9,29.96,North,360,0.0,0.0,90,0.00,,,0.11,Wunderground v.1.13,2013-02-22 20:50:00,
2013-02-22 14:51:00,55.8,52.9,29.96,North,360,0.0,0.0,90,0.00,,,0.11,Wunderground v.1.13,2013-02-22 20:51:00,
2013-02-22 14:53:00,55.8,52.9,29.96,North,360,0.0,0.0,90,0.00,,,0.11,Wunderground v.1.13,2013-02-22 20:53:00,
2013-02-22 14:54:00,55.8,52.9,29.96,North,360,0.0,0.0,90,0.00,,,0.11,Wunderground v.1.13,2013-02-22 20:54:00,
2013-02-22 14:55:00,55.8,52.9,29.96,North,360,0.0,0.0,90,0.00,,,0.11,Wunderground v.1.13,2013-02-22 20:55:00,
2013-02-22 14:56:00,55.8,52.9,29.96,North,360,0.0,0.0,90,0.00,,,0.11,Wunderground v.1.13,2013-02-22 20:56:00,
2013-02-22 14:58:00,55.8,52.9,29.96,North,360,0.0,0.0,90,0.00,,,0.11,Wunderground v.1.13,2013-02-22 20:58:00,
2013-02-22 14:59:00,55.8,52.9,29.96,North,360,0.0,0.0,90,0.00,,,0.11,Wunderground v.1.13,2013-02-22 20:59:00,
2013-02-22 15:00:00,55.8,52.9,29.96,North,360,0.0,0.0,90,0.00,,,0.11,Wunderground v.1.13,2013-02-22 21:00:00,
2013-02-22 15:02:00,55.8,52.9,29.98,North,360,0.0,0.0,90,0.00,,,0.11,Wunderground v.1.13,2013-02-22 21:02:00,
2013-02-22 15:03:00,55.8,52.9,29.98,North,360,0.0,0.0,90,0.00,,,0.11,Wunderground v.1.13,2013-02-22 21:03:00,
2013-02-22 15:04:00,55.8,52.9,29.98,North,360,0.0,0.0,90,0.00,,,0.11,Wunderground v.1.13,2013-02-22 21:04:00,
2013-02-22 15:06:00,55.8,52.9,29.98,North,360,0.0,0.0,90,0.00,,,0.11,Wunderground v.1.13,2013-02-22 21:06:00,
2013-02-22 15:07:00,55.6,52.7,29.98,North,360,0.0,0.0,90,0.00,,,0.11,Wunderground v.1.13,2013-02-22 21:07:00,
2013-02-22 15:08:00,55.6,52.7,29.98,North,360,0.0,0.0,90,0.00,,,0.11,Wunderground v.1.13,2013-02-22 21:08:00,
2013-02-22 15:09:00,55.6,52.7,29.98,North,360,0.0,0.0,90,0.00,,,0.11,Wunderground v.1.13,2013-02-22 21:09:00,
2013-02-22 15:11:00,55.8,52.9,29.98,North,360,0.0,0.0,90,0.00,,,0.11,Wunderground v.1.13,2013-02-22 21:11:00,
2013-02-22 15:12:00,55.8,52.9,29.98,North,360,0.0,0.0,90,0.00,,,0.11,Wunderground v.1.13,2013-02-22 21:12:00,
2013-02-22 15:14:00,55.8,52.9,29.98,North,360,0.0,0.0,90,0.00,,,0.11,Wunderground v.1.13,2013-02-22 21:14:00,
2013-02-22 15:15:00,55.8,52.9,29.98,SE,130,1.0,1.0,90,0.00,,,0.11,Wunderground v.1.13,2013-02-22 21:15:00,
2013-02-22 15:16:00,55.6,52.7,29.98,SE,130,0.0,2.0,90,0.00,,,0.11,Wunderground v.1.13,2013-02-22 21:16:00,
2013-02-22 15:17:00,55.6,52.7,29.98,SE,130,0.0,2.0,90,0.00,,,0.11,Wunderground v.1.13,2013-02-22 21:17:00,
2013-02-22 15:19:00,55.6,52.7,29.98,SE,130,0.0,2.0,90,0.00,,,0.11,Wunderground v.1.13,2013-02-22 21:19:00,
2013-02-22 15:20:00,55.6,52.7,29.98,ESE,116,2.0,2.0,90,0.00,,,0.11,Wunderground v.1.13,2013-02-22 21:20:00,
2013-02-22 15:22:00,55.6,52.7,29.98,ESE,102,1.0,3.0,90,0.00,,,0.11,Wunderground v.1.13,2013-02-22 21:22:00,
2013-02-22 15:24:00,55.6,52.7,29.98,ESE,102,0.0,3.0,90,0.00,,,0.11,Wunderground v.1.13,2013-02-22 21:24:00,
2013-02-22 15:25:00,55.6,52.7,29.98,East,99,3.0,3.0,90,0.00,,,0.11,Wunderground v.1.13,2013-02-22 21:25:00,
2013-02-22 15:27:00,55.6,52.7,29.98,East,99,0.0,3.0,90,0.00,,,0.11,Wunderground v.1.13,2013-02-22 21:27:00,
2013-02-22 15:29:00,55.6,52.7,29.98,East,99,0.0,3.0,90,0.00,,,0.11,Wunderground v.1.13,2013-02-22 21:29:00,
2013-02-22 15:30:00,55.6,52.7,29.98,East,99,0.0,2.0,90,0.00,,,0.11,Wunderground v.1.13,2013-02-22 21:30:00,
2013-02-22 15:32:00,55.6,52.7,29.93,East,99,2.0,3.0,90,0.00,,,0.11,Wunderground v.1.13,2013-02-22 21:32:00,
2013-02-22 15:34:00,55.5,52.6,29.93,East,99,0.0,3.0,90,0.00,,,0.11,Wunderground v.1.13,2013-02-22 21:34:00,
2013-02-22 15:35:00,55.5,52.6,29.93,East,99,0.0,1.0,90,0.00,,,0.11,Wunderground v.1.13,2013-02-22 21:35:00,
2013-02-22 15:37:00,55.5,52.6,29.93,East,99,0.0,1.0,90,0.00,,,0.11,Wunderground v.1.13,2013-02-22 21:37:00,
2013-02-22 15:38:00,55.5,52.9,29.93,East,99,0.0,2.0,91,0.00,,,0.11,Wunderground v.1.13,2013-02-22 21:38:00,
2013-02-22 15:40:00,55.5,52.9,29.93,East,99,0.0,1.0,91,0.00,,,0.12,Wunderground v.1.13,2013-02-22 21:40:00,
2013-02-22 15:42:00,55.3,52.7,29.93,NE,49,0.0,2.0,91,0.00,,,0.12,Wunderground v.1.13,2013-02-22 21:42:00,
2013-02-22 15:43:00,55.3,52.7,29.93,NE,49,0.0,2.0,91,0.00,,,0.12,Wunderground v.1.13,2013-02-22 21:43:00,
2013-02-22 15:45:00,55.3,52.7,29.93,NE,49,0.0,2.0,91,0.00,,,0.12,Wunderground v.1.13,2013-02-22 21:45:00,
2013-02-22 15:48:00,55.3,52.7,29.93,NE,49,0.0,2.0,91,0.00,,,0.12,Wunderground v.1.13,2013-02-22 21:48:00,
2013-02-22 15:50:00,55.3,52.7,29.93,NE,49,0.0,0.0,91,0.00,,,0.12,Wunderground v.1.13,2013-02-22 21:50:00,
2013-02-22 15:53:00,55.3,52.7,29.93,NE,49,0.0,2.0,91,0.00,,,0.12,Wunderground v.1.13,2013-02-22 21:53:00,
2013-02-22 15:55:00,55.3,53.0,29.93,South,171,0.0,0.0,92,0.00,,,0.12,Wunderground v.1.13,2013-02-22 21:55:00,
2013-02-22 15:58:00,55.3,53.0,29.93,South,171,0.0,0.0,92,0.00,,,0.12,Wunderground v.1.13,2013-02-22 21:58:00,
2013-02-22 15:59:00,55.3,53.0,29.93,South,171,0.0,0.0,92,0.00,,,0.12,Wunderground v.1.13,2013-02-22 21:59:00,
2013-02-22 16:01:00,55.3,53.0,29.93,South,171,0.0,0.0,92,0.00,,,0.12,Wunderground v.1.13,2013-02-22 22:01:00,
2013-02-22 16:03:00,55.3,53.0,29.99,South,171,0.0,0.0,92,0.00,,,0.12,Wunderground v.1.13,2013-02-22 22:03:00,
2013-02-22 16:04:00,55.3,53.0,29.99,South,171,0.0,0.0,92,0.00,,,0.12,Wunderground v.1.13,2013-02-22 22:04:00,
2013-02-22 16:06:00,55.2,52.9,29.99,South,171,0.0,0.0,92,0.00,,,0.12,Wunderground v.1.13,2013-02-22 22:06:00,
2013-02-22 16:09:00,55.2,52.9,29.99,South,171,0.0,0.0,92,0.00,,,0.12,Wunderground v.1.13,2013-02-22 22:09:00,
2013-02-22 16:11:00,55.2,52.9,29.99,South,171,0.0,0.0,92,0.00,,,0.12,Wunderground v.1.13,2013-02-22 22:11:00,
2013-02-22 16:14:00,55.2,52.9,29.99,South,171,0.0,0.0,92,0.00,,,0.12,Wunderground v.1.13,2013-02-22 22:14:00,
2013-02-22 16:17:00,55.2,53.2,30.00,South,171,0.0,0.0,93,0.00,,,0.12,Wunderground v.1.13,2013-02-22 22:17:00,
2013-02-22 16:19:00,55.2,53.2,30.00,South,171,0.0,0.0,93,0.00,,,0.12,Wunderground v.1.13,2013-02-22 22:19:00,
2013-02-22 16:22:00,55.2,53.2,30.00,South,171,0.0,0.0,93,0.00,,,0.12,Wunderground v.1.13,2013-02-22 22:22:00,
2013-02-22 16:24:00,55.2,53.2,30.00,South,171,0.0,0.0,93,0.00,,,0.12,Wunderground v.1.13,2013-02-22 22:24:00,
2013-02-22 16:27:00,55.0,53.0,30.00,South,171,0.0,0.0,93,0.00,,,0.12,Wunderground v.1.13,2013-02-22 22:27:00,
2013-02-22 16:29:00,55.0,53.0,30.00,South,171,0.0,0.0,93,0.00,,,0.13,Wunderground v.1.13,2013-02-22 22:29:00,
2013-02-22 16:30:00,55.0,53.0,30.00,South,171,0.0,0.0,93,0.00,,,0.13,Wunderground v.1.13,2013-02-22 22:30:00,
2013-02-22 16:32:00,55.0,53.0,30.00,South,171,0.0,0.0,93,0.24,,,0.14,Wunderground v.1.13,2013-02-22 22:32:00,
2013-02-22 16:34:00,55.0,53.0,30.00,South,171,0.0,0.0,93,0.23,,,0.14,Wunderground v.1.13,2013-02-22 22:34:00,
2013-02-22 16:35:00,55.0,53.0,30.00,South,171,0.0,0.0,93,0.19,,,0.14,Wunderground v.1.13,2013-02-22 22:35:00,
2013-02-22 16:37:00,55.0,53.0,30.00,South,171,0.0,0.0,93,0.16,,,0.15,Wunderground v.1.13,2013-02-22 22:37:00,
2013-02-22 16:39:00,55.0,53.3,30.00,South,171,0.0,0.0,94,0.31,,,0.17,Wunderground v.1.13,2013-02-22 22:39:00,
2013-02-22 16:40:00,55.0,53.3,30.00,South,171,0.0,0.0,94,0.31,,,0.17,Wunderground v.1.13,2013-02-22 22:40:00,
2013-02-22 16:42:00,54.9,53.2,30.00,South,171,0.0,0.0,94,0.22,,,0.18,Wunderground v.1.13,2013-02-22 22:42:00,
2013-02-22 16:44:00,54.9,53.2,30.00,South,171,0.0,0.0,94,0.22,,,0.18,Wunderground v.1.13,2013-02-22 22:44:00,
2013-02-22 16:45:00,54.9,53.2,30.00,South,171,0.0,0.0,94,0.20,,,0.18,Wunderground v.1.13,2013-02-22 22:45:00,
2013-02-22 16:47:00,54.9,53.2,29.99,South,171,0.0,0.0,94,0.18,,,0.19,Wunderground v.1.13,2013-02-22 22:47:00,
2013-02-22 16:48:00,54.9,53.2,29.99,South,171,0.0,0.0,94,0.18,,,0.19,Wunderground v.1.13,2013-02-22 22:48:00,
2013-02-22 16:50:00,54.9,53.2,29.99,South,171,0.0,0.0,94,0.26,,,0.20,Wunderground v.1.13,2013-02-22 22:50:00,
2013-02-22 16:51:00,54.9,53.2,29.99,South,171,0.0,0.0,94,0.22,,,0.21,Wunderground v.1.13,2013-02-22 22:51:00,
2013-02-22 16:52:00,54.7,53.0,29.99,South,171,0.0,0.0,94,0.44,,,0.22,Wunderground v.1.13,2013-02-22 22:52:00,
2013-02-22 16:53:00,54.7,53.0,29.99,South,171,0.0,0.0,94,0.44,,,0.22,Wunderground v.1.13,2013-02-22 22:53:00,
2013-02-22 16:55:00,54.7,53.0,29.99,South,171,0.0,0.0,94,0.35,,,0.23,Wunderground v.1.13,2013-02-22 22:55:00,
2013-02-22 16:56:00,54.7,53.0,29.99,South,171,0.0,0.0,94,0.26,,,0.24,Wunderground v.1.13,2013-02-22 22:56:00,
2013-02-22 16:57:00,54.7,53.3,29.99,South,171,0.0,0.0,95,0.26,,,0.24,Wunderground v.1.13,2013-02-22 22:57:00,
2013-02-22 16:58:00,54.7,53.3,29.99,South,171,0.0,0.0,95,0.23,,,0.24,Wunderground v.1.13,2013-02-22 22:58:00,
2013-02-22 17:00:00,54.7,53.3,29.99,South,171,0.0,0.0,95,0.15,,,0.24,Wunderground v.1.13,2013-02-22 23:00:00,
2013-02-22 17:01:00,54.7,53.3,29.99,South,171,0.0,0.0,95,0.11,,,0.24,Wunderground v.1.13,2013-02-22 23:01:00,
2013-02-22 17:03:00,54.7,53.3,29.95,South,171,0.0,0.0,95,0.09,,,0.24,Wunderground v.1.13,2013-02-22 23:03:00,
2013-02-22 17:04:00,54.7,53.3,29.95,South,171,0.0,0.0,95,0.07,,,0.24,Wunderground v.1.13,2013-02-22 23:04:00,
2013-02-22 17:05:00,54.7,53.3,29.95,South,171,0.0,0.0,95,0.06,,,0.24,Wunderground v.1.13,2013-02-22 23:05:00,
2013-02-22 17:06:00,54.7,53.3,29.95,South,171,0.0,0.0,95,0.06,,,0.24,Wunderground v.1.13,2013-02-22 23:06:00,
2013-02-22 17:08:00,54.7,53.3,29.95,South,171,0.0,0.0,95,0.05,,,0.24,Wunderground v.1.13,2013-02-22 23:08:00,
2013-02-22 17:09:00,54.6,53.2,29.95,South,171,0.0,0.0,95,0.04,,,0.24,Wunderground v.1.13,2013-02-22 23:09:00,
2013-02-22 17:11:00,54.6,53.2,29.95,South,171,0.0,0.0,95,0.04,,,0.24,Wunderground v.1.13,2013-02-22 23:11:00,
2013-02-22 17:12:00,54.6,53.2,29.95,South,171,0.0,0.0,95,0.04,,,0.24,Wunderground v.1.13,2013-02-22 23:12:00,
2013-02-22 17:13:00,54.6,53.2,29.95,South,171,0.0,0.0,95,0.04,,,0.24,Wunderground v.1.13,2013-02-22 23:13:00,
2013-02-22 17:14:00,54.6,53.2,29.95,South,171,0.0,0.0,95,0.00,,,0.24,Wunderground v.1.13,2013-02-22 23:14:00,
2013-02-22 17:16:00,54.4,53.0,29.95,South,171,0.0,2.0,95,0.00,,,0.24,Wunderground v.1.13,2013-02-22 23:16:00,
2013-02-22 17:18:00,54.4,53.0,29.95,South,171,0.0,2.0,95,0.00,,,0.24,Wunderground v.1.13,2013-02-22 23:18:00,
2013-02-22 17:19:00,54.4,53.0,29.95,South,171,0.0,2.0,95,0.00,,,0.24,Wunderground v.1.13,2013-02-22 23:19:00,
2013-02-22 17:21:00,54.4,53.0,29.95,South,171,0.0,0.0,95,0.00,,,0.24,Wunderground v.1.13,2013-02-22 23:21:00,
2013-02-22 17:23:00,54.4,53.0,29.95,South,171,0.0,1.0,95,0.00,,,0.24,Wunderground v.1.13,2013-02-22 23:23:00,
2013-02-22 17:24:00,54.4,53.0,29.95,South,171,0.0,1.0,95,0.00,,,0.24,Wunderground v.1.13,2013-02-22 23:24:00,
2013-02-22 17:26:00,54.4,53.0,29.95,South,171,0.0,0.0,95,0.00,,,0.24,Wunderground v.1.13,2013-02-22 23:26:00,
2013-02-22 17:28:00,54.4,53.0,29.95,South,171,0.0,0.0,95,0.00,,,0.24,Wunderground v.1.13,2013-02-22 23:28:00,
2013-02-22 17:29:00,54.4,53.0,29.95,South,171,0.0,1.0,95,0.00,,,0.24,Wunderground v.1.13,2013-02-22 23:29:00,
2013-02-22 17:31:00,54.3,52.9,29.95,South,171,0.0,0.0,95,0.00,,,0.24,Wunderground v.1.13,2013-02-22 23:31:00,
2013-02-22 17:33:00,54.3,52.9,29.94,South,171,0.0,4.0,95,0.00,,,0.24,Wunderground v.1.13,2013-02-22 23:33:00,
2013-02-22 17:35:00,54.3,52.9,29.94,South,171,0.0,0.0,95,0.00,,,0.24,Wunderground v.1.13,2013-02-22 23:35:00,
2013-02-22 17:36:00,54.3,52.9,29.94,South,171,0.0,0.0,95,0.00,,,0.24,Wunderground v.1.13,2013-02-22 23:36:00,
2013-02-22 17:38:00,54.3,53.2,29.94,South,171,0.0,1.0,96,0.00,,,0.24,Wunderground v.1.13,2013-02-22 23:38:00,
2013-02-22 17:40:00,54.3,53.2,29.94,South,171,0.0,0.0,96,0.00,,,0.24,Wunderground v.1.13,2013-02-22 23:40:00,
2013-02-22 17:41:00,54.3,53.2,29.94,South,171,0.0,0.0,96,0.00,,,0.24,Wunderground v.1.13,2013-02-22 23:41:00,
2013-02-22 17:43:00,54.3,53.2,29.94,South,171,0.0,0.0,96,0.00,,,0.24,Wunderground v.1.13,2013-02-22 23:43:00,
2013-02-22 17:45:00,54.1,53.0,29.94,South,171,0.0,0.0,96,0.00,,,0.24,Wunderground v.1.13,2013-02-22 23:45:00,
2013-02-22 17:46:00,54.1,53.0,29.94,South,171,0.0,0.0,96,0.00,,,0.24,Wunderground v.1.13,2013-02-22 23:46:00,
2013-02-22 17:48:00,54.1,53.0,29.95,South,171,0.0,0.0,96,0.00,,,0.24,Wunderground v.1.13,2013-02-22 23:48:00,
2013-02-22 17:50:00,54.1,53.0,29.95,South,171,0.0,0.0,96,0.00,,,0.24,Wunderground v.1.13,2013-02-22 23:50:00,
2013-02-22 17:51:00,54.1,53.0,29.95,South,171,0.0,0.0,96,0.00,,,0.24,Wunderground v.1.13,2013-02-22 23:51:00,
2013-02-22 17:53:00,54.1,53.0,29.95,South,171,0.0,0.0,96,0.00,,,0.24,Wunderground v.1.13,2013-02-22 23:53:00,
2013-02-22 17:54:00,54.1,53.0,29.95,South,171,0.0,0.0,96,0.00,,,0.24,Wunderground v.1.13,2013-02-22 23:54:00,
2013-02-22 17:56:00,54.1,53.0,29.95,South,171,0.0,0.0,96,0.00,,,0.24,Wunderground v.1.13,2013-02-22 23:56:00,
2013-02-22 17:59:00,54.1,53.0,29.95,South,171,0.0,0.0,96,0.00,,,0.24,Wunderground v.1.13,2013-02-22 23:59:00,
2013-02-22 18:01:00,54.1,53.0,29.95,South,171,0.0,0.0,96,0.00,,,0.24,Wunderground v.1.13,2013-02-23 00:01:00,
2013-02-22 18:02:00,54.1,53.0,29.96,South,171,0.0,0.0,96,0.00,,,0.24,Wunderground v.1.13,2013-02-23 00:02:00,
2013-02-22 18:04:00,54.1,53.0,29.96,South,171,0.0,1.0,96,0.00,,,0.24,Wunderground v.1.13,2013-02-23 00:04:00,
2013-02-22 18:06:00,54.1,53.0,29.96,South,171,0.0,0.0,96,0.00,,,0.24,Wunderground v.1.13,2013-02-23 00:06:00,
2013-02-22 18:07:00,54.1,53.0,29.96,South,171,0.0,0.0,96,0.00,,,0.24,Wunderground v.1.13,2013-02-23 00:07:00,
2013-02-22 18:09:00,54.0,52.9,29.96,South,171,0.0,0.0,96,0.00,,,0.24,Wunderground v.1.13,2013-02-23 00:09:00,
2013-02-22 18:11:00,54.0,52.9,29.96,South,171,0.0,0.0,96,0.00,,,0.24,Wunderground v.1.13,2013-02-23 00:11:00,
2013-02-22 18:12:00,54.0,52.9,29.96,South,171,0.0,0.0,96,0.00,,,0.24,Wunderground v.1.13,2013-02-23 00:12:00,
2013-02-22 18:14:00,54.0,52.9,29.96,South,171,0.0,0.0,96,0.00,,,0.24,Wunderground v.1.13,2013-02-23 00:14:00,
2013-02-22 18:15:00,54.0,52.9,29.96,South,171,0.0,2.0,96,0.00,,,0.24,Wunderground v.1.13,2013-02-23 00:15:00,
2013-02-22 18:16:00,53.9,52.8,29.96,South,171,0.0,0.0,96,0.00,,,0.24,Wunderground v.1.13,2013-02-23 00:16:00,
2013-02-22 18:17:00,53.9,52.8,29.96,South,171,0.0,0.0,96,0.00,,,0.24,Wunderground v.1.13,2013-02-23 00:17:00,
2013-02-22 18:19:00,53.9,52.8,29.96,South,171,0.0,0.0,96,0.00,,,0.24,Wunderground v.1.13,2013-02-23 00:19:00,
2013-02-22 18:20:00,53.9,52.8,29.96,South,171,0.0,0.0,96,0.00,,,0.24,Wunderground v.1.13,2013-02-23 00:20:00,
2013-02-22 18:21:00,53.9,52.8,29.96,South,171,0.0,0.0,96,0.00,,,0.24,Wunderground v.1.13,2013-02-23 00:21:00,
2013-02-22 18:22:00,53.9,52.8,29.96,South,171,0.0,0.0,96,0.00,,,0.24,Wunderground v.1.13,2013-02-23 00:22:00,
2013-02-22 18:24:00,53.7,52.6,29.96,South,171,0.0,0.0,96,0.00,,,0.24,Wunderground v.1.13,2013-02-23 00:24:00,
2013-02-22 18:26:00,53.7,52.6,29.96,SE,128,1.0,1.0,96,0.00,,,0.24,Wunderground v.1.13,2013-02-23 00:26:00,
2013-02-22 18:27:00,53.7,52.6,29.96,SE,128,0.0,1.0,96,0.00,,,0.24,Wunderground v.1.13,2013-02-23 00:27:00,
2013-02-22 18:30:00,53.6,52.5,29.96,SE,128,0.0,0.0,96,0.00,,,0.24,Wunderground v.1.13,2013-02-23 00:30:00,
2013-02-22 18:31:00,53.6,52.5,29.96,SE,128,1.0,1.0,96,0.00,,,0.24,Wunderground v.1.13,2013-02-23 00:31:00,
2013-02-22 18:32:00,53.6,52.5,29.95,SE,128,0.0,1.0,96,0.00,,,0.24,Wunderground v.1.13,2013-02-23 00:32:00,
2013-02-22 18:35:00,53.6,52.5,29.95,SE,128,0.0,0.0,96,0.00,,,0.24,Wunderground v.1.13,2013-02-23 00:35:00,
2013-02-22 18:37:00,53.6,52.5,29.95,SE,128,0.0,1.0,96,0.00,,,0.24,Wunderground v.1.13,2013-02-23 00:37:00,
2013-02-22 18:38:00,53.6,52.5,29.95,SE,128,0.0,1.0,96,0.00,,,0.24,Wunderground v.1.13,2013-02-23 00:38:00,
2013-02-22 18:41:00,53.6,52.5,29.95,SE,128,0.0,0.0,96,0.00,,,0.24,Wunderground v.1.13,2013-02-23 00:41:00,
2013-02-22 18:42:00,53.6,52.5,29.95,SE,128,0.0,0.0,96,0.00,,,0.24,Wunderground v.1.13,2013-02-23 00:42:00,
2013-02-22 18:43:00,53.6,52.5,29.95,SE,128,0.0,0.0,96,0.00,,,0.24,Wunderground v.1.13,2013-02-23 00:43:00,
2013-02-22 18:46:00,53.4,52.3,29.95,SE,128,0.0,0.0,96,0.00,,,0.24,Wunderground v.1.13,2013-02-23 00:46:00,
2013-02-22 18:47:00,53.4,52.3,29.95,SE,128,0.0,0.0,96,0.00,,,0.24,Wunderground v.1.13,2013-02-23 00:47:00,
2013-02-22 18:48:00,53.4,52.3,29.95,SE,128,0.0,0.0,96,0.00,,,0.24,Wunderground v.1.13,2013-02-23 00:48:00,
2013-02-22 18:51:00,53.4,52.3,29.95,SE,128,0.0,0.0,96,0.00,,,0.24,Wunderground v.1.13,2013-02-23 00:51:00,
2013-02-22 18:53:00,53.4,52.3,29.95,SE,128,0.0,0.0,96,0.00,,,0.24,Wunderground v.1.13,2013-02-23 00:53:00,
2013-02-22 18:56:00,53.4,52.3,29.95,SE,128,0.0,0.0,96,0.00,,,0.24,Wunderground v.1.13,2013-02-23 00:56:00,
2013-02-22 18:57:00,53.4,52.3,29.95,SE,128,0.0,0.0,96,0.00,,,0.24,Wunderground v.1.13,2013-02-23 00:57:00,
2013-02-22 18:58:00,53.4,52.3,29.95,SE,128,0.0,0.0,96,0.00,,,0.24,Wunderground v.1.13,2013-02-23 00:58:00,
2013-02-22 19:01:00,53.3,52.2,29.95,SE,128,0.0,0.0,96,0.00,,,0.24,Wunderground v.1.13,2013-02-23 01:01:00,
2013-02-22 19:02:00,53.3,52.2,29.97,SE,128,0.0,0.0,96,0.00,,,0.24,Wunderground v.1.13,2013-02-23 01:02:00,
2013-02-22 19:03:00,53.3,52.2,29.97,SE,128,0.0,0.0,96,0.00,,,0.24,Wunderground v.1.13,2013-02-23 01:03:00,
2013-02-22 19:04:00,53.3,52.2,29.97,SE,128,1.0,1.0,96,0.00,,,0.24,Wunderground v.1.13,2013-02-23 01:04:00,
2013-02-22 19:06:00,53.1,52.0,29.97,SE,128,0.0,0.0,96,0.00,,,0.24,Wunderground v.1.13,2013-02-23 01:06:00,
2013-02-22 19:07:00,53.1,52.0,29.97,SE,128,0.0,1.0,96,0.00,,,0.24,Wunderground v.1.13,2013-02-23 01:07:00,
2013-02-22 19:08:00,53.1,52.0,29.97,SE,128,0.0,1.0,96,0.00,,,0.24,Wunderground v.1.13,2013-02-23 01:08:00,
2013-02-22 19:09:00,53.1,52.0,29.97,SE,128,0.0,1.0,96,0.00,,,0.24,Wunderground v.1.13,2013-02-23 01:09:00,
2013-02-22 19:12:00,53.0,51.9,29.97,SE,128,0.0,0.0,96,0.00,,,0.24,Wunderground v.1.13,2013-02-23 01:12:00,
2013-02-22 19:13:00,53.0,51.9,29.97,SE,128,0.0,0.0,96,0.00,,,0.24,Wunderground v.1.13,2013-02-23 01:13:00,
2013-02-22 19:14:00,53.0,51.9,29.97,SE,128,0.0,0.0,96,0.00,,,0.24,Wunderground v.1.13,2013-02-23 01:14:00,
2013-02-22 19:17:00,53.0,51.9,30.06,SE,128,1.0,1.0,96,0.00,,,0.24,Wunderground v.1.13,2013-02-23 01:17:00,
2013-02-22 19:18:00,53.0,51.9,30.06,SE,128,0.0,2.0,96,0.00,,,0.24,Wunderground v.1.13,2013-02-23 01:18:00,
2013-02-22 19:19:00,53.0,51.9,30.06,SE,128,0.0,2.0,96,0.00,,,0.24,Wunderground v.1.13,2013-02-23 01:19:00,
2013-02-22 19:22:00,53.1,52.0,30.06,SE,132,0.0,3.0,96,0.00,,,0.24,Wunderground v.1.13,2013-02-23 01:22:00,
2013-02-22 19:24:00,53.1,52.0,30.06,ESE,123,0.0,3.0,96,0.00,,,0.24,Wunderground v.1.13,2013-02-23 01:24:00,
2013-02-22 19:27:00,53.1,52.0,30.06,ESE,123,0.0,1.0,96,0.00,,,0.25,Wunderground v.1.13,2013-02-23 01:27:00,
2013-02-22 19:29:00,53.1,52.0,30.06,ESE,123,0.0,1.0,96,0.00,,,0.25,Wunderground v.1.13,2013-02-23 01:29:00,
2013-02-22 19:30:00,53.1,52.0,30.06,ESE,123,0.0,0.0,96,0.00,,,0.25,Wunderground v.1.13,2013-02-23 01:30:00,
2013-02-22 19:32:00,53.1,52.0,30.02,ESE,123,0.0,0.0,96,0.00,,,0.25,Wunderground v.1.13,2013-02-23 01:32:00,
2013-02-22 19:34:00,53.1,52.0,30.02,ESE,123,0.0,2.0,96,0.00,,,0.25,Wunderground v.1.13,2013-02-23 01:34:00,
2013-02-22 19:35:00,53.1,52.0,30.02,ESE,123,0.0,0.0,96,0.00,,,0.25,Wunderground v.1.13,2013-02-23 01:35:00,
2013-02-22 19:37:00,53.1,52.0,30.02,ESE,123,0.0,0.0,96,0.00,,,0.25,Wunderground v.1.13,2013-02-23 01:37:00,
2013-02-22 19:39:00,53.1,52.0,30.02,ESE,123,0.0,1.0,96,0.00,,,0.25,Wunderground v.1.13,2013-02-23 01:39:00,
2013-02-22 19:40:00,53.1,52.0,30.02,ESE,123,0.0,0.0,96,0.00,,,0.25,Wunderground v.1.13,2013-02-23 01:40:00,
2013-02-22 19:43:00,53.0,51.9,30.02,ESE,123,0.0,0.0,96,0.00,,,0.25,Wunderground v.1.13,2013-02-23 01:43:00,
2013-02-22 19:44:00,53.0,51.9,30.02,ESE,123,1.0,1.0,96,0.00,,,0.25,Wunderground v.1.13,2013-02-23 01:44:00,
2013-02-22 19:45:00,53.0,51.9,30.02,ESE,123,0.0,1.0,96,0.00,,,0.25,Wunderground v.1.13,2013-02-23 01:45:00,
2013-02-22 19:48:00,53.0,51.9,30.01,ESE,123,0.0,2.0,96,0.00,,,0.26,Wunderground v.1.13,2013-02-23 01:48:00,
2013-02-22 19:49:00,53.0,51.9,30.01,ESE,123,0.0,2.0,96,0.00,,,0.26,Wunderground v.1.13,2013-02-23 01:49:00,
2013-02-22 19:50:00,53.0,51.9,30.01,ESE,123,0.0,2.0,96,0.00,,,0.26,Wunderground v.1.13,2013-02-23 01:50:00,
2013-02-22 19:53:00,53.0,51.9,30.01,ESE,123,0.0,2.0,96,0.00,,,0.26,Wunderground v.1.13,2013-02-23 01:53:00,
2013-02-22 19:54:00,52.8,51.7,30.01,ESE,123,0.0,2.0,96,0.00,,,0.26,Wunderground v.1.13,2013-02-23 01:54:00,
2013-02-22 19:56:00,52.8,51.7,30.01,ESE,123,0.0,0.0,96,0.08,,,0.27,Wunderground v.1.13,2013-02-23 01:56:00,
2013-02-22 19:58:00,52.8,51.7,30.01,ESE,123,0.0,0.0,96,0.08,,,0.27,Wunderground v.1.13,2013-02-23 01:58:00,
2013-02-22 19:59:00,52.8,51.7,30.01,ESE,123,0.0,0.0,96,0.08,,,0.27,Wunderground v.1.13,2013-02-23 01:59:00,
2013-02-22 20:00:00,52.8,51.7,30.01,ESE,123,0.0,0.0,96,0.13,,,0.28,Wunderground v.1.13,2013-02-23 02:00:00,
2013-02-22 20:01:00,52.8,51.7,30.01,ESE,123,0.0,0.0,96,0.13,,,0.28,Wunderground v.1.13,2013-02-23 02:01:00,
2013-02-22 20:03:00,52.8,51.7,30.00,ESE,123,0.0,0.0,96,0.13,,,0.28,Wunderground v.1.13,2013-02-23 02:03:00,
2013-02-22 20:04:00,52.8,51.7,30.00,ESE,123,0.0,0.0,96,0.13,,,0.28,Wunderground v.1.13,2013-02-23 02:04:00,
2013-02-22 20:05:00,52.8,51.7,30.00,ESE,123,0.0,0.0,96,0.10,,,0.28,Wunderground v.1.13,2013-02-23 02:05:00,
2013-02-22 20:06:00,52.8,51.7,30.00,ESE,123,0.0,0.0,96,0.10,,,0.29,Wunderground v.1.13,2013-02-23 02:06:00,
2013-02-22 20:08:00,52.8,51.7,30.00,ESE,123,0.0,0.0,96,0.10,,,0.29,Wunderground v.1.13,2013-02-23 02:08:00,
2013-02-22 20:09:00,52.8,51.7,30.00,ESE,123,0.0,0.0,96,0.10,,,0.29,Wunderground v.1.13,2013-02-23 02:09:00,
2013-02-22 20:10:00,52.8,51.7,30.00,ESE,123,0.0,0.0,96,0.16,,,0.30,Wunderground v.1.13,2013-02-23 02:10:00,
2013-02-22 20:11:00,52.7,51.6,30.00,ESE,123,0.0,0.0,96,0.16,,,0.30,Wunderground v.1.13,2013-02-23 02:11:00,
2013-02-22 20:13:00,52.7,51.6,30.00,SE,136,1.0,3.0,96,0.14,,,0.30,Wunderground v.1.13,2013-02-23 02:13:00,
2013-02-22 20:14:00,52.7,51.6,30.00,SE,136,0.0,3.0,96,0.13,,,0.30,Wunderground v.1.13,2013-02-23 02:14:00,
2013-02-22 20:15:00,52.7,51.6,30.00,SE,136,0.0,0.0,96,0.11,,,0.31,Wunderground v.1.13,2013-02-23 02:15:00,
2013-02-22 20:16:00,52.7,51.6,30.00,SE,136,0.0,0.0,96,0.11,,,0.31,Wunderground v.1.13,2013-02-23 02:16:00,
2013-02-22 20:18:00,52.7,51.6,29.99,SE,136,0.0,0.0,96,0.11,,,0.31,Wunderground v.1.13,2013-02-23 02:18:00,
2013-02-22 20:19:00,52.7,51.6,29.99,SE,136,0.0,0.0,96,0.11,,,0.31,Wunderground v.1.13,2013-02-23 02:19:00,
2013-02-22 20:20:00,52.7,51.6,29.99,SE,136,0.0,0.0,96,0.10,,,0.31,Wunderground v.1.13,2013-02-23 02:20:00,
2013-02-22 20:21:00,52.5,51.4,29.99,SE,136,2.0,2.0,96,0.08,,,0.31,Wunderground v.1.13,2013-02-23 02:21:00,
2013-02-22 20:23:00,52.5,51.4,29.99,SE,135,1.0,3.0,96,0.07,,,0.31,Wunderground v.1.13,2013-02-23 02:23:00,
2013-02-22 20:24:00,52.5,51.4,29.99,SE,135,0.0,3.0,96,0.06,,,0.31,Wunderground v.1.13,2013-02-23 02:24:00,
2013-02-22 20:25:00,52.5,51.4,29.99,SE,135,0.0,0.0,96,0.06,,,0.31,Wunderground v.1.13,2013-02-23 02:25:00,
2013-02-22 20:27:00,52.5,51.4,29.99,SE,135,0.0,0.0,96,0.05,,,0.31,Wunderground v.1.13,2013-02-23 02:27:00,
2013-02-22 20:28:00,52.5,51.4,29.99,SE,135,0.0,0.0,96,0.04,,,0.31,Wunderground v.1.13,2013-02-23 02:28:00,
2013-02-22 20:29:00,52.5,51.4,29.99,SE,135,0.0,0.0,96,0.04,,,0.31,Wunderground v.1.13,2013-02-23 02:29:00,
2013-02-22 20:31:00,52.5,51.4,29.99,SE,135,0.0,0.0,96,0.04,,,0.31,Wunderground v.1.13,2013-02-23 02:31:00,
2013-02-22 20:32:00,52.5,51.4,30.00,SE,135,0.0,1.0,96,0.00,,,0.31,Wunderground v.1.13,2013-02-23 02:32:00,
2013-02-22 20:34:00,52.4,51.3,30.00,SE,135,0.0,1.0,96,0.00,,,0.31,Wunderground v.1.13,2013-02-23 02:34:00,
2013-02-22 20:36:00,52.4,51.3,30.00,SE,135,0.0,0.0,96,0.00,,,0.31,Wunderground v.1.13,2013-02-23 02:36:00,
2013-02-22 20:37:00,52.4,51.3,30.00,SE,135,0.0,0.0,96,0.00,,,0.31,Wunderground v.1.13,2013-02-23 02:37:00,
2013-02-22 20:39:00,52.4,51.3,30.00,SE,135,1.0,2.0,96,0.00,,,0.31,Wunderground v.1.13,2013-02-23 02:39:00,
2013-02-22 20:41:00,52.4,51.3,30.00,SE,135,0.0,0.0,96,0.00,,,0.32,Wunderground v.1.13,2013-02-23 02:41:00,
2013-02-22 20:42:00,52.4,51.3,30.00,SE,135,0.0,1.0,96,0.00,,,0.32,Wunderground v.1.13,2013-02-23 02:42:00,
2013-02-22 20:44:00,52.4,51.3,30.00,SE,134,2.0,3.0,96,0.00,,,0.32,Wunderground v.1.13,2013-02-23 02:44:00,
2013-02-22 20:46:00,52.2,51.1,30.00,SE,134,0.0,0.0,96,0.00,,,0.32,Wunderground v.1.13,2013-02-23 02:46:00,
2013-02-22 20:47:00,52.2,51.1,30.00,SE,134,0.0,0.0,96,0.00,,,0.32,Wunderground v.1.13,2013-02-23 02:47:00,
2013-02-22 20:49:00,52.2,51.1,30.00,SE,134,0.0,0.0,96,0.00,,,0.32,Wunderground v.1.13,2013-02-23 02:49:00,
2013-02-22 20:52:00,52.2,51.1,30.00,SE,134,0.0,0.0,96,0.00,,,0.32,Wunderground v.1.13,2013-02-23 02:52:00,
2013-02-22 20:54:00,52.2,51.1,30.00,SE,134,1.0,2.0,96,0.00,,,0.32,Wunderground v.1.13,2013-02-23 02:54:00,
2013-02-22 20:57:00,52.2,51.1,30.00,SE,134,0.0,1.0,96,0.00,,,0.32,Wunderground v.1.13,2013-02-23 02:57:00,
2013-02-22 20:59:00,52.1,51.0,30.00,SE,135,0.0,1.0,96,0.00,,,0.32,Wunderground v.1.13,2013-02-23 02:59:00,
2013-02-22 21:00:00,52.1,51.0,30.00,SE,134,0.0,0.0,96,0.00,,,0.32,Wunderground v.1.13,2013-02-23 03:00:00,
2013-02-22 21:02:00,52.1,51.0,29.98,SE,135,0.0,2.0,96,0.00,,,0.32,Wunderground v.1.13,2013-02-23 03:02:00,
2013-02-22 21:03:00,52.1,51.0,29.98,SE,134,0.0,2.0,96,0.00,,,0.32,Wunderground v.1.13,2013-02-23 03:03:00,
2013-02-22 21:05:00,52.1,51.0,29.98,ESE,121,0.0,3.0,96,0.00,,,0.32,Wunderground v.1.13,2013-02-23 03:05:00,
2013-02-22 21:07:00,52.1,51.3,29.98,ESE,121,0.0,2.0,97,0.00,,,0.32,Wunderground v.1.13,2013-02-23 03:07:00,
2013-02-22 21:08:00,52.1,51.3,29.98,ESE,121,0.0,2.0,97,0.00,,,0.32,Wunderground v.1.13,2013-02-23 03:08:00,
2013-02-22 21:10:00,51.9,51.1,29.98,ESE,121,0.0,0.0,97,0.00,,,0.32,Wunderground v.1.13,2013-02-23 03:10:00,
2013-02-22 21:13:00,51.9,51.1,29.98,ESE,121,0.0,0.0,97,0.00,,,0.32,Wunderground v.1.13,2013-02-23 03:13:00,
2013-02-22 21:16:00,51.9,51.1,29.98,ESE,121,0.0,1.0,97,0.00,,,0.32,Wunderground v.1.13,2013-02-23 03:16:00,
2013-02-22 21:18:00,51.9,51.1,29.98,ESE,121,0.0,1.0,97,0.00,,,0.32,Wunderground v.1.13,2013-02-23 03:18:00,
2013-02-22 21:21:00,51.8,51.0,29.98,ESE,121,0.0,0.0,97,0.00,,,0.32,Wunderground v.1.13,2013-02-23 03:21:00,
2013-02-22 21:23:00,51.8,51.0,29.98,ESE,121,0.0,0.0,97,0.00,,,0.32,Wunderground v.1.13,2013-02-23 03:23:00,
2013-02-22 21:24:00,51.8,51.0,29.98,ESE,121,0.0,0.0,97,0.00,,,0.32,Wunderground v.1.13,2013-02-23 03:24:00,
2013-02-22 21:26:00,51.8,51.0,29.98,ESE,121,0.0,0.0,97,0.00,,,0.32,Wunderground v.1.13,2013-02-23 03:26:00,
2013-02-22 21:28:00,51.8,51.0,29.98,ESE,121,0.0,0.0,97,0.00,,,0.32,Wunderground v.1.13,2013-02-23 03:28:00,
2013-02-22 21:29:00,51.8,51.0,29.98,ESE,121,0.0,0.0,97,0.00,,,0.32,Wunderground v.1.13,2013-02-23 03:29:00,
2013-02-22 21:31:00,51.6,50.8,29.98,ESE,121,0.0,0.0,97,0.00,,,0.32,Wunderground v.1.13,2013-02-23 03:31:00,
2013-02-22 21:33:00,51.6,50.8,29.96,ESE,121,0.0,0.0,97,0.00,,,0.32,Wunderground v.1.13,2013-02-23 03:33:00,
2013-02-22 21:34:00,51.6,50.8,29.96,ESE,121,0.0,0.0,97,0.00,,,0.32,Wunderground v.1.13,2013-02-23 03:34:00,
2013-02-22 21:36:00,51.6,50.8,29.96,ESE,121,0.0,0.0,97,0.00,,,0.32,Wunderground v.1.13,2013-02-23 03:36:00,
2013-02-22 21:38:00,51.6,50.8,29.96,ESE,121,0.0,0.0,97,0.00,,,0.32,Wunderground v.1.13,2013-02-23 03:38:00,
2013-02-22 21:40:00,51.6,50.8,29.96,ESE,121,0.0,0.0,97,0.00,,,0.32,Wunderground v.1.13,2013-02-23 03:40:00,
2013-02-22 21:41:00,51.6,50.8,29.96,ESE,121,0.0,0.0,97,0.00,,,0.32,Wunderground v.1.13,2013-02-23 03:41:00,
2013-02-22 21:42:00,51.6,50.8,29.96,ESE,121,0.0,0.0,97,0.00,,,0.32,Wunderground v.1.13,2013-02-23 03:42:00,
2013-02-22 21:43:00,51.6,50.8,29.96,ESE,121,0.0,0.0,97,0.00,,,0.32,Wunderground v.1.13,2013-02-23 03:43:00,
2013-02-22 21:45:00,51.6,50.8,29.96,ESE,121,0.0,0.0,97,0.00,,,0.32,Wunderground v.1.13,2013-02-23 03:45:00,
2013-02-22 21:46:00,51.6,50.8,29.96,ESE,121,0.0,0.0,97,0.00,,,0.32,Wunderground v.1.13,2013-02-23 03:46:00,
2013-02-22 21:47:00,51.6,50.8,29.95,ESE,121,0.0,0.0,97,0.00,,,0.32,Wunderground v.1.13,2013-02-23 03:47:00,
2013-02-22 21:49:00,51.6,50.8,29.95,ESE,121,0.0,0.0,97,0.00,,,0.33,Wunderground v.1.13,2013-02-23 03:49:00,
2013-02-22 21:50:00,51.6,50.8,29.95,ESE,121,1.0,1.0,97,0.00,,,0.33,Wunderground v.1.13,2013-02-23 03:50:00,
2013-02-22 21:51:00,51.6,50.8,29.95,ESE,121,0.0,2.0,97,0.00,,,0.33,Wunderground v.1.13,2013-02-23 03:51:00,
2013-02-22 21:52:00,51.6,50.8,29.95,ESE,121,0.0,2.0,97,0.00,,,0.33,Wunderground v.1.13,2013-02-23 03:52:00,
2013-02-22 21:54:00,51.6,50.8,29.95,ESE,121,0.0,2.0,97,0.00,,,0.33,Wunderground v.1.13,2013-02-23 03:54:00,
2013-02-22 21:55:00,51.6,50.8,29.95,ESE,121,0.0,0.0,97,0.00,,,0.33,Wunderground v.1.13,2013-02-23 03:55:00,
2013-02-22 21:57:00,51.6,50.8,29.95,ESE,121,0.0,0.0,97,0.00,,,0.33,Wunderground v.1.13,2013-02-23 03:57:00,
2013-02-22 22:00:00,51.6,50.8,29.95,ESE,121,0.0,0.0,97,0.00,,,0.33,Wunderground v.1.13,2013-02-23 04:00:00,
2013-02-22 22:02:00,51.6,50.8,29.94,ESE,121,0.0,2.0,97,0.00,,,0.33,Wunderground v.1.13,2013-02-23 04:02:00,
2013-02-22 22:05:00,51.6,50.8,29.94,ESE,121,2.0,2.0,97,0.00,,,0.33,Wunderground v.1.13,2013-02-23 04:05:00,
2013-02-22 22:07:00,51.6,50.8,29.94,ESE,121,0.0,2.0,97,0.00,,,0.33,Wunderground v.1.13,2013-02-23 04:07:00,
2013-02-22 22:08:00,51.6,50.8,29.94,ESE,121,1.0,2.0,97,0.00,,,0.33,Wunderground v.1.13,2013-02-23 04:08:00,
2013-02-22 22:10:00,51.6,50.8,29.94,SE,126,0.0,1.0,97,0.00,,,0.33,Wunderground v.1.13,2013-02-23 04:10:00,
2013-02-22 22:12:00,51.6,50.8,29.94,SE,126,0.0,1.0,97,0.00,,,0.33,Wunderground v.1.13,2013-02-23 04:12:00,
2013-02-22 22:13:00,51.6,50.8,29.94,SE,125,0.0,1.0,97,0.00,,,0.33,Wunderground v.1.13,2013-02-23 04:13:00,
2013-02-22 22:15:00,51.6,50.8,29.94,SE,126,0.0,1.0,97,0.00,,,0.34,Wunderground v.1.13,2013-02-23 04:15:00,
2013-02-22 22:18:00,51.6,50.8,29.96,SE,126,0.0,2.0,97,0.00,,,0.34,Wunderground v.1.13,2013-02-23 04:18:00,
2013-02-22 22:20:00,51.6,50.8,29.96,SE,125,0.0,0.0,97,0.00,,,0.34,Wunderground v.1.13,2013-02-23 04:20:00,
2013-02-22 22:23:00,51.5,50.7,29.96,SE,125,1.0,2.0,97,0.08,,,0.35,Wunderground v.1.13,2013-02-23 04:23:00,
2013-02-22 22:25:00,51.5,50.7,29.96,SE,125,0.0,0.0,97,0.08,,,0.35,Wunderground v.1.13,2013-02-23 04:25:00,
2013-02-22 22:28:00,51.5,50.7,29.96,SE,126,1.0,2.0,97,0.10,,,0.36,Wunderground v.1.13,2013-02-23 04:28:00,
2013-02-22 22:30:00,51.3,50.5,29.96,SE,125,0.0,1.0,97,0.10,,,0.36,Wunderground v.1.13,2013-02-23 04:30:00,
2013-02-22 22:31:00,51.3,50.5,29.96,SE,125,0.0,1.0,97,0.10,,,0.36,Wunderground v.1.13,2013-02-23 04:31:00,
2013-02-22 22:33:00,51.3,50.5,29.94,SE,125,1.0,2.0,97,0.09,,,0.36,Wunderground v.1.13,2013-02-23 04:33:00,
2013-02-22 22:36:00,51.2,50.4,29.94,SE,125,2.0,3.0,97,0.06,,,0.36,Wunderground v.1.13,2013-02-23 04:36:00,
2013-02-22 22:38:00,51.2,50.4,29.94,NNE,24,0.0,3.0,97,0.05,,,0.36,Wunderground v.1.13,2013-02-23 04:38:00,
2013-02-22 22:41:00,51.0,50.2,29.94,NNE,24,0.0,1.0,97,0.04,,,0.36,Wunderground v.1.13,2013-02-23 04:41:00,
2013-02-22 22:43:00,51.0,50.2,29.94,NNE,24,0.0,1.0,97,0.04,,,0.37,Wunderground v.1.13,2013-02-23 04:43:00,
2013-02-22 22:46:00,51.0,50.2,29.94,NNE,24,0.0,0.0,97,0.04,,,0.37,Wunderground v.1.13,2013-02-23 04:46:00,
2013-02-22 22:48:00,51.0,50.2,29.97,NNE,24,2.0,3.0,97,0.15,,,0.38,Wunderground v.1.13,2013-02-23 04:48:00,
2013-02-22 22:51:00,51.0,50.2,29.97,NNE,24,0.0,1.0,97,0.41,,,0.40,Wunderground v.1.13,2013-02-23 04:51:00,
2013-02-22 22:53:00,51.2,50.4,29.97,NNE,24,0.0,2.0,97,1.81,,,0.45,Wunderground v.1.13,2013-02-23 04:53:00,
2013-02-22 22:56:00,51.2,50.4,29.97,NNE,13,3.0,5.0,97,0.84,,,0.50,Wunderground v.1.13,2013-02-23 04:56:00,
2013-02-22 22:57:00,51.2,50.4,29.97,North,360,4.0,5.0,97,0.96,,,0.51,Wunderground v.1.13,2013-02-23 04:57:00,
2013-02-22 22:58:00,51.2,50.4,29.97,North,360,3.0,5.0,97,0.52,,,0.53,Wunderground v.1.13,2013-02-23 04:58:00,
2013-02-22 23:00:00,51.2,50.4,29.97,North,360,0.0,2.0,97,0.49,,,0.54,Wunderground v.1.13,2013-02-23 05:00:00,
2013-02-22 23:05:00,51.2,50.4,29.95,North,360,0.0,1.0,97,0.32,,,0.56,Wunderground v.1.13,2013-02-23 05:05:00,
2013-02-22 23:10:00,51.0,50.2,29.95,North,360,0.0,0.0,97,0.34,,,0.58,Wunderground v.1.13,2013-02-23 05:10:00,
2013-02-22 23:11:00,51.0,50.2,29.95,North,360,0.0,0.0,97,0.34,,,0.59,Wunderground v.1.13,2013-02-23 05:11:00,
2013-02-22 23:15:00,50.9,50.1,29.95,North,360,0.0,1.0,97,0.20,,,0.61,Wunderground v.1.13,2013-02-23 05:15:00,
2013-02-22 23:16:00,50.9,50.1,29.95,North,360,0.0,1.0,97,0.20,,,0.61,Wunderground v.1.13,2013-02-23 05:16:00,
2013-02-22 23:20:00,50.9,50.1,29.95,North,360,0.0,0.0,97,0.18,,,0.62,Wunderground v.1.13,2013-02-23 05:20:00,
2013-02-22 23:21:00,50.9,50.1,29.95,North,360,0.0,0.0,97,0.15,,,0.62,Wunderground v.1.13,2013-02-23 05:21:00,
2013-02-22 23:25:00,50.9,50.1,29.95,North,360,0.0,2.0,97,0.14,,,0.63,Wunderground v.1.13,2013-02-23 05:25:00,
2013-02-22 23:26:00,50.9,50.1,29.95,North,360,2.0,2.0,97,0.13,,,0.63,Wunderground v.1.13,2013-02-23 05:26:00,
2013-02-22 23:31:00,50.7,49.9,29.95,North,360,0.0,0.0,97,0.09,,,0.64,Wunderground v.1.13,2013-02-23 05:31:00,
2013-02-22 23:36:00,50.7,49.9,29.94,North,360,0.0,0.0,97,0.08,,,0.64,Wunderground v.1.13,2013-02-23 05:36:00,
2013-02-22 23:41:00,50.6,49.8,29.94,North,360,0.0,2.0,97,0.05,,,0.64,Wunderground v.1.13,2013-02-23 05:41:00,
2013-02-22 23:42:00,50.6,49.8,29.94,North,360,1.0,2.0,97,0.04,,,0.64,Wunderground v.1.13,2013-02-23 05:42:00,
2013-02-22 23:46:00,50.4,49.6,29.94,North,360,3.0,3.0,97,0.00,,,0.64,Wunderground v.1.13,2013-02-23 05:46:00,
2013-02-22 23:47:00,50.4,49.6,29.92,North,360,1.0,3.0,97,0.00,,,0.64,Wunderground v.1.13,2013-02-23 05:47:00,
2013-02-22 23:51:00,50.3,49.5,29.92,North,360,1.0,4.0,97,0.00,,,0.64,Wunderground v.1.13,2013-02-23 05:51:00,
2013-02-22 23:52:00,50.3,49.5,29.92,North,360,0.0,4.0,97,0.00,,,0.64,Wunderground v.1.13,2013-02-23 05:52:00,
2013-02-22 23:56:00,50.2,49.4,29.92,North,360,2.0,2.0,97,0.00,,,0.64,Wunderground v.1.13,2013-02-23 05:56:00,
2013-02-22 23:57:00,50.2,49.4,29.92,North,360,2.0,2.0,97,0.00,,,0.64,Wunderground v.1.13,2013-02-23 05:57:00,